Laatste waarneming: 13:21
Temperatuur:20,1°C
Dauwpunt:12,2°C
Rel. vocht:60,0%
Natte-bol:15,5°C
Wind (gem. 10 min.):2,5 m/s
Wind (max. 10 min.):1.7E+308 m/s
Windrichting:147°
Neerslagsom:0,0 mm
Neerslagintensiteit:0,0 mm/u
Luchtdruk:1025,1 hPa
Straling:178,8 W/m2
 
Maximumtemp.:20,1°C (13:21)
Minimumtemp.:12,1°C (07:30)
Hoogste windstoot:- m/s (00:00)


Bekijk de verwachting.

Bekijk de grafieken.
Bekijk het weekoverzicht.
Bekijk het maandoverzicht.
Bekijk het jaaroverzicht.
Dagtabel
Tijd Temp. Dauwp. Natte-bol Rel. Hum. Windsnelh. Windricht. Windstoot Neerslag Straling Luchtdruk
 
13:21 20,1 12,2 15,5 60,0 2,5 147 - 0,0 179 1.025,1
13:20 20,1 12,2 15,5 60,2 1,8 162 - 0,0 267 1.025,1
13:19 20,0 12,3 15,6 60,7 1,3 116 - 0,0 282 1.025,1
13:18 20,0 12,2 15,5 60,5 1,7 176 - 0,0 571 1.025,1
13:17 20,0 12,3 15,6 61,0 1,5 180 - 0,0 628 1.025,1
13:16 20,0 12,3 15,6 61,0 1,3 61 - 0,0 666 1.025,1
13:15 19,9 12,3 15,6 61,0 1,5 134 - 0,0 666 1.025,1
13:14 19,9 12,2 15,5 61,0 1,6 101 - 0,0 666 1.025,1
13:13 19,9 12,2 15,5 61,0 1,6 198 - 0,0 690 1.025,0
13:12 19,8 12,3 15,6 61,6 2,1 252 - 0,0 701 1.025,0
13:11 19,8 12,4 15,6 62,0 1,4 183 - 0,0 621 1.025,1
13:10 19,8 12,4 15,6 62,0 1,5 128 - 0,0 617 1.025,1
13:09 19,8 12,4 15,6 62,0 1,8 109 - 0,0 617 1.025,1
13:08 19,8 12,4 15,6 62,0 2,0 155 - 0,0 617 1.025,1
13:07 19,7 12,3 15,5 62,0 2,4 163 - 0,0 617 1.025,1
13:06 19,7 12,4 15,6 62,6 2,1 163 - 0,0 694 1.025,1
13:05 19,7 12,6 15,7 63,0 2,0 97 - 0,0 652 1.025,2
13:04 19,7 12,5 15,6 63,0 1,6 154 - 0,0 652 1.025,2
13:03 19,7 12,5 15,6 63,0 1,2 57 - 0,0 504 1.025,2
13:02 19,7 12,5 15,6 63,0 1,1 177 - 0,0 355 1.025,2
13:01 19,7 12,5 15,6 63,0 1,3 176 - 0,0 355 1.025,2
13:00 19,7 12,7 15,7 63,6 1,5 80 - 0,0 265 1.025,2
 
12:59 19,7 12,9 15,9 64,7 2,0 151 - 0,0 257 1.025,2
12:58 19,7 13,2 16,1 65,9 1,9 96 - 0,0 250 1.025,1
12:57 19,6 13,4 16,2 66,8 1,2 189 - 0,0 391 1.025,2
12:56 19,6 13,1 16,0 66,0 0,5 57 - 0,0 545 1.025,3
12:55 19,6 13,2 16,1 66,5 0,5 201 - 0,0 590 1.025,4
12:54 19,5 13,3 16,1 67,0 1,2 163 - 0,0 527 1.025,4
12:53 19,4 13,1 15,9 66,3 1,6 216 - 0,0 388 1.025,4
12:52 19,4 13,0 15,9 66,0 1,6 165 - 0,0 472 1.025,4
12:51 19,3 12,9 15,8 66,0 1,7 160 - 0,0 629 1.025,4
12:50 19,3 12,9 15,8 66,0 1,7 178 - 0,0 629 1.025,3
12:49 19,3 12,9 15,7 66,0 1,3 120 - 0,0 625 1.025,4
12:48 19,3 12,9 15,7 66,0 1,3 237 - 0,0 607 1.025,4
12:47 19,3 12,8 15,7 66,0 1,6 184 - 0,0 397 1.025,4
12:46 19,2 12,8 15,7 66,1 1,5 178 - 0,0 451 1.025,4
12:45 19,2 13,0 15,8 67,0 1,4 195 - 0,0 533 1.025,5
12:44 19,2 13,0 15,8 67,0 1,3 196 - 0,0 533 1.025,4
12:43 19,2 13,0 15,8 67,0 0,9 186 - 0,0 377 1.025,4
12:42 19,2 13,0 15,8 67,0 0,5 89 - 0,0 338 1.025,5
12:41 19,2 13,0 15,8 67,0 0,7 247 - 0,0 338 1.025,4
12:40 19,1 12,9 15,7 67,0 1,1 207 - 0,0 303 1.025,4
12:39 19,1 12,9 15,7 67,0 0,3 176 - 0,0 217 1.025,4
12:38 19,1 13,0 15,7 67,4 0,6 30 - 0,0 486 1.025,4
12:37 19,0 13,1 15,8 68,0 1,2 147 - 0,0 613 1.025,4
12:36 19,0 13,0 15,8 68,0 1,1 61 - 0,0 610 1.025,5
12:35 18,9 13,0 15,7 68,0 0,9 199 - 0,0 580 1.025,5
12:34 18,9 12,9 15,7 68,0 1,1 104 - 0,0 571 1.025,5
12:33 18,8 12,9 15,6 68,0 1,4 186 - 0,0 589 1.025,5
12:32 18,8 12,9 15,6 68,0 1,3 134 - 0,0 575 1.025,5
12:31 18,8 12,9 15,6 68,0 1,1 240 - 0,0 575 1.025,6
12:30 18,8 12,8 15,6 68,0 0,7 145 - 0,0 511 1.025,6
12:29 18,7 12,8 15,5 68,0 1,2 79 - 0,0 520 1.025,6
12:28 18,7 12,8 15,5 68,0 1,2 34 - 0,0 573 1.025,6
12:27 18,7 12,7 15,5 68,0 0,6 137 - 0,0 330 1.025,6
12:26 18,7 12,7 15,5 68,0 1,1 227 - 0,0 156 1.025,6
12:25 18,7 12,7 15,5 68,0 0,7 101 - 0,0 156 1.025,7
12:24 18,6 12,8 15,5 68,7 1,2 67 - 0,0 155 1.025,6
12:23 18,6 12,9 15,5 69,0 1,2 140 - 0,0 191 1.025,6
12:22 18,6 12,7 15,4 68,2 1,4 113 - 0,0 290 1.025,6
12:21 18,5 12,8 15,5 69,0 1,2 103 - 0,0 290 1.025,6
12:20 18,5 12,8 15,5 69,0 0,9 205 - 0,0 290 1.025,7
12:19 18,4 12,7 15,4 69,0 0,8 67 - 0,0 353 1.025,7
12:18 18,4 12,9 15,5 69,7 1,2 159 - 0,0 360 1.025,6
12:17 18,4 12,9 15,5 70,0 1,6 170 - 0,0 373 1.025,7
12:16 18,4 12,9 15,5 70,0 1,3 180 - 0,0 416 1.025,7
12:15 18,3 12,9 15,5 70,0 1,2 103 - 0,0 455 1.025,6
12:14 18,3 12,8 15,4 70,0 0,8 119 - 0,0 504 1.025,6
12:13 18,2 12,8 15,4 70,0 0,4 285 - 0,0 516 1.025,7
12:12 18,2 12,7 15,4 70,0 0,5 222 - 0,0 567 1.025,7
12:11 18,2 12,7 15,3 70,0 1,0 111 - 0,0 553 1.025,8
12:10 18,2 12,9 15,5 71,0 1,5 219 - 0,0 542 1.025,8
12:09 18,2 12,9 15,4 71,0 2,0 196 - 0,0 541 1.025,8
12:08 18,1 12,9 15,4 71,0 1,7 205 - 0,0 538 1.025,8
12:07 18,1 12,8 15,4 71,0 1,7 263 - 0,0 536 1.025,7
12:06 18,0 12,8 15,3 71,0 1,1 212 - 0,0 520 1.025,7
12:05 18,0 12,9 15,4 71,9 1,2 122 - 0,0 528 1.025,7
12:04 17,9 12,9 15,4 72,0 1,3 247 - 0,0 538 1.025,7
12:03 17,9 12,9 15,3 72,0 1,0 190 - 0,0 533 1.025,8
12:02 17,9 12,8 15,3 72,0 1,2 88 - 0,0 529 1.025,8
12:01 17,8 12,9 15,4 72,7 0,7 130 - 0,0 529 1.025,8
12:00 17,8 12,9 15,4 73,0 0,9 267 - 0,0 527 1.025,8
 
11:58 17,8 12,9 15,4 73,0 0,7 174 - 0,0 522 1.025,8
11:57 17,7 13,0 15,4 73,4 1,0 84 - 0,0 520 1.025,9
11:56 17,7 13,1 15,4 74,0 1,1 180 - 0,0 517 1.025,8
11:55 17,7 13,1 15,4 74,0 1,6 152 - 0,0 517 1.025,9
11:54 17,7 13,2 15,5 74,8 1,7 155 - 0,0 515 1.025,9
11:53 17,6 13,2 15,5 75,0 1,0 127 - 0,0 516 1.025,9
11:52 17,6 13,2 15,5 75,0 0,5 267 - 0,0 514 1.026,0
11:51 17,6 13,1 15,4 75,0 0,7 112 - 0,0 508 1.026,0
11:50 17,6 13,1 15,4 75,0 0,8 197 - 0,0 509 1.026,0
11:49 17,5 13,2 15,5 75,7 0,8 54 - 0,0 506 1.026,0
11:48 17,5 13,2 15,5 76,0 1,0 92 - 0,0 503 1.026,0
11:47 17,4 13,2 15,5 76,0 1,2 182 - 0,0 501 1.026,0
11:46 17,4 13,2 15,4 76,0 1,3 128 - 0,0 499 1.026,0
11:45 17,4 13,3 15,5 76,4 1,5 95 - 0,0 497 1.026,0
11:44 17,4 13,4 15,5 77,0 1,2 161 - 0,0 501 1.026,0
11:43 17,4 13,4 15,5 77,0 1,5 257 - 0,0 500 1.026,0
11:42 17,3 13,3 15,5 77,0 1,5 193 - 0,0 496 1.026,1
11:41 17,3 13,3 15,5 77,0 1,4 267 - 0,0 494 1.026,1
11:40 17,3 13,3 15,4 77,0 1,9 162 - 0,0 495 1.026,2
11:39 17,3 13,3 15,4 77,0 2,4 190 - 0,0 495 1.026,2
11:38 17,2 13,2 15,4 77,0 2,4 237 - 0,0 490 1.026,2
11:37 17,2 13,2 15,4 77,0 1,8 197 - 0,0 489 1.026,1
11:36 17,2 13,2 15,3 77,0 0,8 238 - 0,0 486 1.026,2
11:35 17,2 13,2 15,3 77,0 0,5 88 - 0,0 486 1.026,2
11:34 17,1 13,1 15,3 77,0 1,2 124 - 0,0 487 1.026,2
11:33 17,1 13,2 15,3 77,5 1,4 118 - 0,0 484 1.026,1
11:32 17,1 13,3 15,4 78,0 1,6 168 - 0,0 482 1.026,1
11:31 17,1 13,2 15,4 78,0 1,4 157 - 0,0 482 1.026,1
11:30 17,0 13,2 15,3 78,0 1,1 211 - 0,0 479 1.026,2
11:29 17,0 13,2 15,3 78,0 1,0 206 - 0,0 475 1.026,2
11:28 17,0 13,1 15,3 78,0 1,0 183 - 0,0 476 1.026,2
11:27 16,9 13,1 15,2 78,0 1,0 186 - 0,0 476 1.026,3
11:26 16,9 13,1 15,2 78,0 0,9 219 - 0,0 475 1.026,3
11:25 16,9 13,1 15,2 78,0 0,9 130 - 0,0 382 1.026,3
11:24 16,8 13,0 15,1 78,0 1,1 197 - 0,0 109 1.026,3
11:23 16,8 13,0 15,1 78,0 1,2 179 - 0,0 109 1.026,2
11:22 16,8 13,0 15,1 78,0 1,3 190 - 0,0 109 1.026,2
11:21 16,8 13,0 15,1 78,0 1,3 170 - 0,0 52 1.026,2
11:20 16,8 13,0 15,1 78,0 1,3 190 - 0,0 37 1.026,2
11:19 16,7 12,9 15,0 78,0 1,2 150 - 0,0 37 1.026,3
11:18 16,7 12,9 15,0 78,0 1,2 193 - 0,0 37 1.026,3
11:17 16,7 12,9 15,0 78,0 1,7 172 - 0,0 37 1.026,3
11:16 16,7 12,9 15,0 78,0 2,2 198 - 0,0 37 1.026,2
11:15 16,6 12,8 14,9 78,0 2,5 207 - 0,0 37 1.026,3
11:14 16,6 12,8 14,9 78,0 2,7 210 - 0,0 37 1.026,2
11:13 16,6 12,8 14,9 78,0 2,6 194 - 0,0 35 1.026,2
11:12 16,6 12,8 14,9 78,0 2,4 172 - 0,0 35 1.026,2
11:11 16,6 12,7 14,8 78,0 2,3 178 - 0,0 35 1.026,2
11:10 16,6 12,7 14,8 78,0 2,4 147 - 0,0 35 1.026,2
11:09 16,5 12,7 14,8 78,0 2,0 186 - 0,0 35 1.026,3
11:08 16,5 12,7 14,8 78,0 1,7 178 - 0,0 35 1.026,3
11:07 16,5 12,7 14,8 78,0 1,7 211 - 0,0 35 1.026,3
11:06 16,5 12,7 14,8 78,0 1,7 176 - 0,0 35 1.026,3
11:05 16,4 12,7 14,8 78,3 1,9 151 - 0,0 35 1.026,3
11:04 16,4 12,8 14,9 79,0 2,0 168 - 0,0 35 1.026,3
11:03 16,4 12,8 14,9 79,0 1,7 182 - 0,0 35 1.026,3
11:02 16,4 12,8 14,8 79,0 1,2 109 - 0,0 35 1.026,3
11:01 16,4 12,8 14,8 79,0 1,2 74 - 0,0 35 1.026,3
11:00 16,3 12,7 14,8 79,0 1,3 180 - 0,0 35 1.026,2
 
10:59 16,3 12,7 14,7 79,0 1,7 203 - 0,0 35 1.026,3
10:58 16,3 12,7 14,7 79,0 1,3 148 - 0,0 35 1.026,2
10:57 16,3 12,7 14,7 79,0 0,7 192 - 0,0 35 1.026,3
10:56 16,3 12,7 14,7 79,0 0,9 278 - 0,0 33 1.026,3
10:55 16,2 12,6 14,7 79,0 1,2 185 - 0,0 33 1.026,3
10:54 16,2 12,8 14,7 80,0 1,6 199 - 0,0 33 1.026,3
10:53 16,2 12,7 14,7 79,7 1,5 198 - 0,0 33 1.026,2
10:52 16,2 12,6 14,7 79,5 1,8 180 - 0,0 33 1.026,2
10:51 16,2 12,7 14,7 80,0 2,5 197 - 0,0 33 1.026,2
10:50 16,1 12,7 14,7 80,0 2,6 196 - 0,0 33 1.026,3
10:49 16,1 12,7 14,6 80,0 2,2 157 - 0,0 33 1.026,3
10:48 16,1 12,6 14,6 80,0 1,7 172 - 0,0 33 1.026,3
10:47 16,0 12,6 14,6 80,0 1,3 126 - 0,0 33 1.026,3
10:46 16,0 12,6 14,6 80,0 1,1 194 - 0,0 33 1.026,3
10:45 16,0 12,6 14,6 80,0 1,2 125 - 0,0 33 1.026,3
10:44 16,0 12,5 14,5 80,0 1,5 200 - 0,0 33 1.026,3
10:43 15,9 12,5 14,5 80,0 1,7 181 - 0,0 33 1.026,3
10:42 15,9 12,5 14,5 80,0 1,3 232 - 0,0 33 1.026,2
10:41 15,9 12,5 14,4 80,0 1,0 151 - 0,0 33 1.026,2
10:40 15,9 12,5 14,4 80,0 1,1 207 - 0,0 33 1.026,2
10:39 15,9 12,5 14,4 80,0 1,4 142 - 0,0 33 1.026,3
10:38 15,9 12,5 14,4 80,0 1,9 202 - 0,0 33 1.026,2
10:37 15,8 12,4 14,4 80,0 2,3 176 - 0,0 33 1.026,2
10:36 15,8 12,5 14,4 80,2 2,1 191 - 0,0 33 1.026,2
10:35 15,8 12,6 14,5 81,0 1,6 169 - 0,0 33 1.026,3
10:34 15,8 12,6 14,5 81,0 1,3 177 - 0,0 33 1.026,3
10:33 15,8 12,5 14,5 81,0 1,4 167 - 0,0 33 1.026,2
10:32 15,7 12,5 14,4 81,0 1,7 178 - 0,0 33 1.026,2
10:31 15,7 12,5 14,4 81,0 1,9 204 - 0,0 33 1.026,3
10:30 15,7 12,4 14,4 81,0 1,8 200 - 0,0 33 1.026,3
10:29 15,7 12,4 14,3 81,0 2,0 205 - 0,0 33 1.026,3
10:28 15,7 12,4 14,3 81,0 2,2 190 - 0,0 33 1.026,3
10:27 15,6 12,4 14,3 81,0 2,2 190 - 0,0 33 1.026,3
10:26 15,6 12,4 14,3 81,0 1,8 190 - 0,0 33 1.026,3
10:25 15,6 12,4 14,3 81,0 1,8 193 - 0,0 33 1.026,4
10:24 15,6 12,3 14,2 81,0 2,1 195 - 0,0 33 1.026,3
10:23 15,6 12,3 14,2 81,0 2,5 181 - 0,0 33 1.026,3
10:22 15,6 12,3 14,2 81,0 2,4 195 - 0,0 33 1.026,4
10:21 15,6 12,5 14,3 81,7 1,8 180 - 0,0 33 1.026,4
10:20 15,5 12,3 14,2 81,2 1,5 213 - 0,0 33 1.026,4
10:19 15,5 12,3 14,2 81,2 1,8 184 - 0,0 32 1.026,4
10:18 15,5 12,4 14,3 82,0 2,0 200 - 0,0 32 1.026,4
10:17 15,4 12,4 14,2 82,0 1,7 209 - 0,0 32 1.026,4
10:16 15,4 12,4 14,2 82,0 1,4 276 - 0,0 32 1.026,4
10:15 15,4 12,4 14,2 82,0 1,6 158 - 0,0 32 1.026,4
10:14 15,4 12,3 14,2 82,0 2,0 197 - 0,0 32 1.026,4
10:13 15,3 12,3 14,2 82,0 1,9 163 - 0,0 32 1.026,4
10:12 15,3 12,3 14,1 82,0 2,2 201 - 0,0 32 1.026,3
10:11 15,3 12,3 14,1 82,0 2,4 186 - 0,0 32 1.026,4
10:10 15,3 12,3 14,1 82,0 2,1 217 - 0,0 32 1.026,4
10:09 15,3 12,3 14,1 82,1 1,8 178 - 0,0 32 1.026,4
10:08 15,3 12,4 14,2 83,0 1,6 178 - 0,0 32 1.026,4
10:07 15,2 12,4 14,1 83,0 1,3 186 - 0,0 32 1.026,4
10:06 15,2 12,3 14,1 82,5 1,3 162 - 0,0 32 1.026,3
10:05 15,2 12,2 14,0 82,0 1,1 145 - 0,0 31 1.026,3
10:04 15,2 12,3 14,1 82,6 1,7 231 - 0,0 30 1.026,3
10:03 15,2 12,3 14,1 83,0 2,2 190 - 0,0 30 1.026,3
10:02 15,2 12,3 14,1 83,0 2,3 192 - 0,0 31 1.026,3
10:01 15,1 12,3 14,1 83,0 2,3 195 - 0,0 32 1.026,3
10:00 15,1 12,3 14,0 83,0 2,5 176 - 0,0 32 1.026,3
 
09:59 15,1 12,2 14,0 83,0 2,7 157 - 0,0 32 1.026,4
09:58 15,1 12,2 14,0 83,0 2,2 163 - 0,0 32 1.026,4
09:57 15,1 12,2 14,0 83,0 1,6 178 - 0,0 32 1.026,4
09:56 15,1 12,2 14,0 83,0 1,9 238 - 0,0 31 1.026,4
09:55 15,0 12,2 14,0 83,0 2,1 199 - 0,0 30 1.026,5
09:54 15,0 12,2 14,0 83,4 2,6 139 - 0,0 30 1.026,5
09:53 15,0 12,2 13,9 83,5 2,7 184 - 0,0 32 1.026,5
09:52 14,9 12,1 13,9 83,1 2,4 198 - 0,0 32 1.026,5
09:51 14,9 12,2 13,9 84,0 1,6 165 - 0,0 32 1.026,5
09:50 14,9 12,2 13,9 84,0 1,6 245 - 0,0 32 1.026,5
09:49 14,9 12,2 13,9 84,0 2,2 180 - 0,0 32 1.026,5
09:48 14,8 12,2 13,9 84,0 2,4 218 - 0,0 33 1.026,5
09:47 14,8 12,2 13,9 84,0 2,5 149 - 0,0 33 1.026,4
09:46 14,8 12,1 13,8 84,0 2,7 175 - 0,0 33 1.026,4
09:45 14,8 12,2 13,9 84,8 2,8 209 - 0,0 36 1.026,4
09:44 14,7 12,2 13,9 85,0 2,7 203 - 0,0 38 1.026,4
09:43 14,7 12,2 13,9 85,0 2,3 186 - 0,0 40 1.026,4
09:42 14,7 12,2 13,9 85,0 1,9 206 - 0,0 42 1.026,4
09:41 14,7 12,2 13,8 85,0 1,7 158 - 0,0 42 1.026,3
09:40 14,6 12,1 13,8 85,0 1,7 178 - 0,0 45 1.026,3
09:39 14,6 12,1 13,8 85,0 1,6 205 - 0,0 46 1.026,2
09:38 14,6 12,1 13,7 85,0 1,5 177 - 0,0 46 1.026,2
09:37 14,6 12,1 13,7 85,0 1,4 186 - 0,0 47 1.026,3
09:36 14,6 12,1 13,7 85,0 1,2 182 - 0,0 47 1.026,3
09:35 14,5 12,0 13,7 85,0 0,8 182 - 0,0 47 1.026,2
09:34 14,5 12,0 13,6 85,0 0,9 182 - 0,0 46 1.026,2
09:33 14,5 12,0 13,6 85,0 1,0 174 - 0,0 47 1.026,2
09:32 14,4 12,1 13,7 86,0 0,9 197 - 0,0 47 1.026,2
09:31 14,4 12,1 13,7 85,7 0,8 201 - 0,0 47 1.026,2
09:30 14,4 11,9 13,6 85,0 0,8 167 - 0,0 47 1.026,2
09:29 14,4 12,0 13,6 85,6 1,0 157 - 0,0 47 1.026,1
09:28 14,3 12,0 13,6 86,0 1,0 151 - 0,0 47 1.026,1
09:27 14,3 12,0 13,6 86,0 0,9 161 - 0,0 49 1.026,2
09:26 14,3 12,0 13,5 86,0 0,8 108 - 0,0 49 1.026,2
09:25 14,3 12,0 13,5 86,0 0,8 117 - 0,0 49 1.026,1
09:24 14,2 11,9 13,5 86,0 0,7 113 - 0,0 49 1.026,1
09:23 14,2 11,9 13,4 86,0 0,6 82 - 0,0 47 1.026,1
09:22 14,2 11,9 13,4 86,0 0,5 127 - 0,0 47 1.026,1
09:21 14,2 11,8 13,4 86,0 0,6 167 - 0,0 46 1.026,1
09:20 14,1 11,8 13,4 86,0 0,8 180 - 0,0 44 1.026,1
09:19 14,1 11,8 13,3 86,0 0,8 164 - 0,0 44 1.026,1
09:18 14,0 11,7 13,3 86,0 0,8 108 - 0,0 42 1.026,1
09:17 14,0 11,7 13,3 86,0 1,0 134 - 0,0 39 1.026,1
09:16 14,0 11,7 13,3 86,0 1,1 74 - 0,0 39 1.026,1
09:15 14,0 11,6 13,2 86,0 1,0 112 - 0,0 37 1.026,1
09:14 13,9 11,6 13,2 86,0 0,9 99 - 0,0 36 1.026,1
09:13 13,9 11,6 13,2 86,0 0,9 134 - 0,0 35 1.026,1
09:12 13,9 11,6 13,2 86,5 0,8 78 - 0,0 33 1.026,1
09:11 13,8 11,7 13,2 87,0 0,7 171 - 0,0 33 1.026,1
09:10 13,8 11,7 13,2 87,0 0,8 138 - 0,0 32 1.026,1
09:09 13,8 11,7 13,2 87,0 0,8 120 - 0,0 31 1.026,1
09:08 13,8 11,7 13,2 87,0 0,7 134 - 0,0 30 1.026,1
09:07 13,7 11,6 13,1 87,0 0,7 142 - 0,0 30 1.026,1
09:06 13,7 11,6 13,1 87,0 0,9 126 - 0,0 30 1.026,1
09:05 13,7 11,5 13,0 87,0 1,1 118 - 0,0 30 1.026,1
09:04 13,7 11,5 13,0 87,0 1,0 109 - 0,0 30 1.026,1
09:03 13,6 11,5 13,0 87,0 0,9 91 - 0,0 30 1.026,1
09:02 13,6 11,5 13,0 87,0 0,5 86 - 0,0 29 1.026,1
09:01 13,6 11,4 12,9 87,0 0,6 209 - 0,0 28 1.026,1
09:00 13,6 11,4 12,9 87,0 0,9 118 - 0,0 28 1.026,1
 
08:59 13,5 11,4 12,9 87,0 1,1 151 - 0,0 28 1.026,1
08:58 13,5 11,4 12,8 87,0 1,2 104 - 0,0 88 1.026,0
08:57 13,5 11,3 12,8 87,0 1,2 111 - 0,0 197 1.026,0
08:56 13,4 11,3 12,8 87,0 1,0 144 - 0,0 197 1.026,0
08:55 13,4 11,3 12,7 87,0 0,7 167 - 0,0 197 1.026,1
08:54 13,4 11,2 12,7 87,0 0,6 60 - 0,0 191 1.026,1
08:53 13,3 11,2 12,7 87,0 0,7 176 - 0,0 192 1.026,1
08:52 13,3 11,2 12,6 87,0 1,0 182 - 0,0 189 1.026,1
08:51 13,3 11,2 12,6 87,0 1,0 154 - 0,0 187 1.026,1
08:50 13,3 11,2 12,6 87,3 1,1 103 - 0,0 185 1.026,0
08:49 13,2 11,3 12,7 88,0 1,1 134 - 0,0 183 1.026,0
08:48 13,2 11,2 12,7 88,0 1,1 147 - 0,0 181 1.026,1
08:47 13,2 11,2 12,6 88,0 1,0 142 - 0,0 179 1.026,1
08:46 13,1 11,2 12,6 88,0 0,8 146 - 0,0 177 1.026,1
08:45 13,1 11,1 12,5 87,8 0,4 234 - 0,0 174 1.026,1
08:44 13,1 10,9 12,4 87,0 0,7 74 - 0,0 171 1.026,1
08:43 13,1 11,0 12,4 87,5 1,4 111 - 0,0 169 1.026,1
08:42 13,0 11,1 12,5 88,0 1,3 91 - 0,0 165 1.026,1
08:41 13,0 11,0 12,4 88,0 1,0 76 - 0,0 163 1.026,1
08:40 13,0 11,0 12,4 88,0 0,9 171 - 0,0 161 1.026,1
08:39 13,0 11,0 12,4 88,0 1,2 129 - 0,0 159 1.026,1
08:38 12,9 11,0 12,4 88,0 1,4 118 - 0,0 156 1.026,1
08:37 12,9 10,9 12,3 88,0 1,3 103 - 0,0 153 1.026,2
08:36 12,9 10,9 12,3 88,0 1,1 95 - 0,0 151 1.026,2
08:35 12,8 10,9 12,3 88,0 1,1 134 - 0,0 148 1.026,2
08:34 12,8 10,8 12,2 88,0 1,0 100 - 0,0 145 1.026,1
08:33 12,8 10,8 12,2 88,0 1,0 115 - 0,0 143 1.026,1
08:32 12,8 10,8 12,2 88,0 1,1 125 - 0,0 140 1.026,1
08:31 12,7 10,8 12,2 88,0 1,1 107 - 0,0 137 1.026,2
08:30 12,7 10,8 12,2 88,0 1,1 90 - 0,0 134 1.026,2
08:29 12,7 10,7 12,1 88,0 0,9 118 - 0,0 133 1.026,2
08:28 12,7 10,7 12,1 88,0 0,8 118 - 0,0 129 1.026,2
08:27 12,6 10,7 12,1 88,0 0,8 115 - 0,0 127 1.026,2
08:26 12,6 10,7 12,1 88,0 0,8 98 - 0,0 126 1.026,2
08:25 12,6 10,6 12,0 88,0 0,7 108 - 0,0 122 1.026,2
08:24 12,6 10,6 12,0 88,0 0,6 134 - 0,0 120 1.026,2
08:23 12,6 10,6 12,0 88,0 0,6 91 - 0,0 117 1.026,1
08:22 12,5 10,6 12,0 88,0 0,6 107 - 0,0 113 1.026,1
08:21 12,5 10,6 11,9 88,0 0,7 188 - 0,0 111 1.026,1
08:20 12,5 10,5 11,9 88,0 0,9 103 - 0,0 109 1.026,1
08:19 12,4 10,5 11,9 88,0 1,1 93 - 0,0 107 1.026,1
08:18 12,4 10,5 11,9 88,0 1,0 105 - 0,0 104 1.026,1
08:17 12,4 10,5 11,8 88,0 1,0 109 - 0,0 101 1.026,1
08:16 12,4 10,4 11,8 88,0 1,0 97 - 0,0 99 1.026,1
08:15 12,4 10,4 11,8 88,0 0,8 113 - 0,0 97 1.026,2
08:14 12,4 10,4 11,8 88,0 0,6 60 - 0,0 96 1.026,1
08:13 12,4 10,4 11,8 88,0 0,6 118 - 0,0 93 1.026,2
08:12 12,3 10,4 11,8 88,0 0,6 99 - 0,0 90 1.026,2
08:11 12,3 10,4 11,8 88,0 0,6 90 - 0,0 87 1.026,2
08:10 12,3 10,4 11,7 88,0 0,7 144 - 0,0 84 1.026,2
08:09 12,3 10,3 11,7 88,0 0,8 93 - 0,0 81 1.026,2
08:08 12,3 10,3 11,7 88,0 1,0 101 - 0,0 81 1.026,2
08:07 12,3 10,3 11,7 88,0 1,1 116 - 0,0 79 1.026,2
08:06 12,3 10,3 11,7 88,0 1,2 114 - 0,0 76 1.026,2
08:05 12,2 10,3 11,6 88,0 1,1 129 - 0,0 72 1.026,1
08:04 12,2 10,3 11,6 88,0 1,1 102 - 0,0 72 1.026,0
08:03 12,2 10,3 11,6 88,0 1,2 75 - 0,0 70 1.026,0
08:02 12,2 10,2 11,6 88,0 1,2 120 - 0,0 68 1.026,1
08:01 12,2 10,2 11,6 88,0 1,1 101 - 0,0 66 1.026,0
08:00 12,2 10,2 11,6 88,0 0,9 140 - 0,0 63 1.026,1
 
07:59 12,2 10,2 11,6 88,0 0,9 115 - 0,0 63 1.026,1
07:58 12,2 10,2 11,6 88,0 1,1 105 - 0,0 61 1.026,1
07:57 12,2 10,2 11,6 88,0 1,1 142 - 0,0 59 1.026,1
07:56 12,1 10,2 11,6 88,0 1,2 144 - 0,0 56 1.026,1
07:55 12,1 10,2 11,5 88,0 1,4 104 - 0,0 54 1.026,1
07:54 12,1 10,2 11,5 88,0 1,5 106 - 0,0 54 1.026,1
07:53 12,1 10,2 11,5 88,0 1,4 99 - 0,0 52 1.026,1
07:52 12,1 10,2 11,5 88,0 1,4 93 - 0,0 50 1.026,1
07:51 12,1 10,2 11,5 88,0 1,4 103 - 0,0 46 1.026,1
07:50 12,1 10,2 11,5 88,0 1,2 78 - 0,0 44 1.026,1
07:49 12,1 10,2 11,5 88,0 1,0 78 - 0,0 44 1.026,0
07:48 12,1 10,1 11,5 88,0 0,8 150 - 0,0 44 1.026,0
07:47 12,1 10,1 11,5 88,0 1,0 138 - 0,0 43 1.026,0
07:46 12,1 10,1 11,5 88,0 1,0 110 - 0,0 41 1.026,0
07:45 12,1 10,1 11,5 88,0 1,0 165 - 0,0 40 1.026,0
07:44 12,1 10,1 11,5 88,0 1,2 88 - 0,0 39 1.026,0
07:43 12,1 10,1 11,5 88,0 1,3 96 - 0,0 39 1.026,0
07:42 12,1 10,0 11,4 87,2 1,2 122 - 0,0 36 1.026,0
07:41 12,1 10,1 11,5 88,0 1,1 100 - 0,0 35 1.026,0
07:40 12,1 10,1 11,5 87,8 1,1 89 - 0,0 34 1.026,0
07:39 12,1 10,0 11,4 87,0 0,8 100 - 0,0 33 1.026,0
07:38 12,1 9,9 11,4 87,0 0,8 166 - 0,0 32 1.025,9
07:37 12,1 9,9 11,4 87,0 0,9 141 - 0,0 30 1.026,0
07:36 12,1 9,9 11,4 87,0 0,8 167 - 0,0 29 1.026,0
07:35 12,1 9,9 11,4 87,0 0,8 100 - 0,0 28 1.025,9
07:34 12,1 10,0 11,4 87,0 0,9 107 - 0,0 27 1.025,9
07:33 12,1 9,9 11,4 87,0 0,8 143 - 0,0 25 1.025,9
07:32 12,1 10,0 11,4 87,0 0,9 101 - 0,0 25 1.025,9
07:31 12,1 9,9 11,4 87,0 1,2 105 - 0,0 23 1.025,9
07:30 12,1 9,9 11,4 87,0 1,4 93 - 0,0 21 1.025,9
07:29 12,1 10,0 11,4 87,0 1,2 105 - 0,0 20 1.025,9
07:28 12,1 10,0 11,4 87,0 1,0 150 - 0,0 19 1.025,9
07:27 12,1 10,0 11,4 87,0 1,0 113 - 0,0 18 1.025,9
07:26 12,1 10,0 11,4 87,0 1,3 86 - 0,0 18 1.025,9
07:25 12,1 10,0 11,4 87,0 1,4 101 - 0,0 16 1.025,9
07:24 12,1 10,0 11,4 87,0 1,4 89 - 0,0 15 1.025,9
07:23 12,1 10,0 11,4 87,0 1,4 109 - 0,0 14 1.026,0
07:22 12,1 10,0 11,4 87,0 1,4 105 - 0,0 14 1.025,9
07:21 12,1 10,0 11,4 87,0 1,4 101 - 0,0 12 1.025,9
07:20 12,1 10,0 11,4 87,0 1,2 97 - 0,0 12 1.025,9
07:19 12,1 10,0 11,4 87,0 1,0 79 - 0,0 12 1.025,9
07:18 12,1 10,0 11,4 87,0 1,1 101 - 0,0 11 1.025,9
07:17 12,1 10,0 11,4 87,0 1,1 94 - 0,0 11 1.025,9
07:16 12,1 10,0 11,4 87,0 1,0 73 - 0,0 11 1.025,9
07:15 12,2 10,0 11,5 87,0 1,0 110 - 0,0 11 1.025,9
07:14 12,2 10,0 11,5 87,0 1,2 125 - 0,0 11 1.025,8
07:13 12,2 10,1 11,5 87,0 1,4 122 - 0,0 9 1.025,8
07:12 12,2 10,1 11,5 87,0 1,3 101 - 0,0 9 1.025,7
07:11 12,1 10,0 11,5 87,0 1,2 77 - 0,0 9 1.025,7
07:10 12,2 10,0 11,5 87,0 1,1 91 - 0,0 9 1.025,8
07:09 12,1 10,0 11,5 87,0 1,1 81 - 0,0 7 1.025,8
07:08 12,2 10,1 11,5 87,0 1,0 113 - 0,0 7 1.025,8
07:07 12,2 10,0 11,5 87,0 1,1 113 - 0,0 7 1.025,8
07:06 12,2 10,0 11,5 87,0 1,0 106 - 0,0 7 1.025,8
07:05 12,2 10,0 11,5 87,0 1,1 95 - 0,0 7 1.025,8
07:04 12,2 10,1 11,5 87,0 1,3 107 - 0,0 6 1.025,8
07:03 12,2 10,1 11,5 87,0 1,4 101 - 0,0 5 1.025,8
07:02 12,2 10,1 11,5 87,0 1,5 104 - 0,0 5 1.025,8
07:01 12,2 10,1 11,5 87,0 1,7 92 - 0,0 5 1.025,8
07:00 12,2 10,1 11,5 87,0 1,6 103 - 0,0 5 1.025,8
 
06:59 12,2 10,1 11,5 87,0 1,2 97 - 0,0 2 1.025,7
06:58 12,2 10,1 11,5 87,0 0,7 146 - 0,0 0 1.025,8
06:57 12,2 10,1 11,5 87,0 0,7 176 - 0,0 0 1.025,8
06:56 12,2 10,1 11,5 87,0 0,8 166 - 0,0 0 1.025,8
06:55 12,2 10,1 11,5 87,0 0,9 134 - 0,0 0 1.025,8
06:54 12,2 10,1 11,5 87,0 0,8 150 - 0,0 0 1.025,7
06:53 12,2 10,1 11,5 87,0 0,7 199 - 0,0 0 1.025,7
06:52 12,2 10,1 11,5 87,0 0,7 135 - 0,0 0 1.025,7
06:51 12,3 10,2 11,6 87,0 0,9 101 - 0,0 0 1.025,8
06:50 12,3 10,2 11,6 87,0 1,0 72 - 0,0 0 1.025,8
06:49 12,3 10,2 11,6 87,0 1,2 105 - 0,0 0 1.025,8
06:48 12,3 10,2 11,6 87,0 1,4 140 - 0,0 0 1.025,7
06:47 12,3 10,2 11,6 87,0 1,6 107 - 0,0 0 1.025,7
06:46 12,3 10,2 11,6 87,0 1,7 99 - 0,0 0 1.025,7
06:45 12,3 10,2 11,6 87,0 1,3 101 - 0,0 0 1.025,7
06:44 12,3 10,2 11,6 87,0 1,1 98 - 0,0 0 1.025,8
06:43 12,3 10,2 11,6 86,8 1,1 85 - 0,0 0 1.025,7
06:42 12,4 10,1 11,6 86,0 0,9 91 - 0,0 0 1.025,7
06:41 12,4 10,1 11,6 86,0 0,8 143 - 0,0 0 1.025,8
06:40 12,4 10,1 11,6 86,0 0,9 126 - 0,0 0 1.025,8
06:39 12,4 10,1 11,6 86,0 1,0 120 - 0,0 0 1.025,8
06:38 12,4 10,1 11,6 86,0 1,1 103 - 0,0 0 1.025,7
06:37 12,4 10,1 11,6 86,0 1,0 105 - 0,0 0 1.025,7
06:36 12,4 10,2 11,7 86,0 1,0 126 - 0,0 0 1.025,7
06:35 12,4 10,2 11,7 86,0 1,2 88 - 0,0 0 1.025,7
06:34 12,5 10,2 11,7 86,0 1,7 79 - 0,0 0 1.025,7
06:33 12,5 10,2 11,7 86,0 1,9 87 - 0,0 0 1.025,7
06:32 12,5 10,2 11,7 86,0 1,9 99 - 0,0 0 1.025,7
06:31 12,5 10,4 11,9 87,0 1,8 91 - 0,0 0 1.025,8
06:30 12,6 10,4 11,9 87,0 1,7 80 - 0,0 0 1.025,7
06:29 12,6 10,4 11,9 87,0 1,5 88 - 0,0 0 1.025,7
06:28 12,6 10,4 11,9 87,0 1,6 101 - 0,0 0 1.025,7
06:27 12,6 10,4 11,9 87,0 1,7 95 - 0,0 0 1.025,7
06:26 12,6 10,5 11,9 87,0 1,6 93 - 0,0 0 1.025,7
06:25 12,6 10,5 11,9 87,0 1,4 88 - 0,0 0 1.025,7
06:24 12,6 10,5 11,9 87,0 1,3 107 - 0,0 0 1.025,7
06:23 12,6 10,5 11,9 87,0 1,1 97 - 0,0 0 1.025,8
06:22 12,7 10,5 12,0 87,0 1,0 78 - 0,0 0 1.025,8
06:21 12,6 10,5 12,0 87,0 1,0 88 - 0,0 0 1.025,8
06:20 12,7 10,5 12,0 87,0 1,0 110 - 0,0 0 1.025,7
06:19 12,7 10,5 12,0 87,0 1,0 92 - 0,0 0 1.025,8
06:18 12,7 10,5 12,0 87,0 0,9 96 - 0,0 0 1.025,8
06:17 12,7 10,5 12,0 87,0 0,8 151 - 0,0 0 1.025,8
06:16 12,7 10,6 12,0 87,0 0,8 105 - 0,0 0 1.025,8
06:15 12,7 10,6 12,0 87,0 0,8 110 - 0,0 0 1.025,8
06:14 12,7 10,5 12,0 87,0 0,7 96 - 0,0 0 1.025,7
06:13 12,7 10,6 12,0 87,0 0,6 111 - 0,0 0 1.025,7
06:12 12,7 10,6 12,0 87,0 0,6 106 - 0,0 0 1.025,7
06:11 12,7 10,5 12,0 87,0 0,7 86 - 0,0 0 1.025,7
06:10 12,7 10,6 12,0 87,0 0,7 116 - 0,0 0 1.025,8
06:09 12,7 10,4 11,9 86,3 0,7 116 - 0,0 0 1.025,8
06:08 12,7 10,4 11,9 86,0 0,6 138 - 0,0 0 1.025,8
06:07 12,7 10,4 11,9 86,0 0,6 142 - 0,0 0 1.025,8
06:06 12,7 10,4 11,9 86,0 0,6 147 - 0,0 0 1.025,9
06:05 12,7 10,4 11,9 86,0 0,6 95 - 0,0 0 1.025,8
06:04 12,7 10,4 11,9 86,0 0,7 142 - 0,0 0 1.025,8
06:03 12,7 10,4 11,9 86,0 0,9 102 - 0,0 0 1.025,8
06:02 12,8 10,5 12,0 86,0 0,9 103 - 0,0 0 1.025,8
06:01 12,8 10,5 12,0 86,0 0,7 107 - 0,0 0 1.025,8
06:00 12,8 10,5 12,0 86,0 0,5 132 - 0,0 0 1.025,8
 
05:59 12,8 10,5 12,0 86,0 0,4 178 - 0,0 0 1.025,8
05:58 12,8 10,5 12,0 86,0 0,3 190 - 0,0 0 1.025,8
05:57 12,8 10,5 12,0 86,0 0,3 145 - 0,0 0 1.025,8
05:56 12,8 10,5 12,0 86,0 0,5 145 - 0,0 0 1.025,8
05:55 12,8 10,5 12,0 86,0 0,6 125 - 0,0 0 1.025,8
05:54 12,8 10,5 12,1 86,0 0,7 170 - 0,0 0 1.025,8
05:53 12,9 10,6 12,1 86,0 0,6 128 - 0,0 0 1.025,8
05:52 12,9 10,6 12,1 86,0 0,6 155 - 0,0 0 1.025,8
05:51 12,9 10,6 12,1 86,0 0,7 146 - 0,0 0 1.025,8
05:50 12,9 10,6 12,1 86,0 0,8 102 - 0,0 0 1.025,8
05:49 12,9 10,6 12,1 86,0 0,9 116 - 0,0 0 1.025,7
05:48 12,9 10,6 12,1 86,0 1,1 135 - 0,0 0 1.025,7
05:47 12,9 10,7 12,2 86,0 1,2 112 - 0,0 0 1.025,7
05:46 12,9 10,7 12,2 86,0 1,1 98 - 0,0 0 1.025,8
05:45 13,0 10,7 12,2 86,0 0,9 117 - 0,0 0 1.025,8
05:44 13,0 10,7 12,2 86,0 0,8 120 - 0,0 0 1.025,8
05:43 13,0 10,7 12,2 86,0 0,6 101 - 0,0 0 1.025,8
05:42 13,0 10,7 12,2 86,0 0,6 168 - 0,0 0 1.025,9
05:41 13,0 10,7 12,2 86,0 0,7 145 - 0,0 0 1.025,9
05:40 13,0 10,7 12,3 86,0 0,6 163 - 0,0 0 1.025,9
05:39 13,1 10,8 12,3 86,0 0,6 116 - 0,0 0 1.025,8
05:38 13,1 10,8 12,3 86,0 0,5 138 - 0,0 0 1.025,8
05:37 13,1 10,8 12,3 86,0 0,5 141 - 0,0 0 1.025,8
05:36 13,1 10,8 12,3 86,0 0,6 107 - 0,0 0 1.025,8
05:35 13,1 10,8 12,3 86,0 0,7 111 - 0,0 0 1.025,8
05:34 13,1 10,8 12,4 86,0 0,8 147 - 0,0 0 1.025,8
05:33 13,2 10,9 12,4 86,0 0,8 130 - 0,0 0 1.025,9
05:32 13,2 10,9 12,4 85,9 0,7 148 - 0,0 0 1.025,9
05:31 13,2 10,8 12,3 85,0 0,5 127 - 0,0 0 1.025,9
05:30 13,2 10,8 12,4 85,4 0,6 117 - 0,0 0 1.025,9
05:29 13,2 10,9 12,5 86,0 0,7 116 - 0,0 0 1.025,9
05:28 13,2 10,9 12,5 86,0 0,6 131 - 0,0 0 1.025,9
05:27 13,3 11,0 12,5 86,0 0,6 155 - 0,0 0 1.026,0
05:26 13,3 11,0 12,5 86,0 0,5 121 - 0,0 0 1.026,0
05:25 13,3 11,0 12,5 86,0 0,4 110 - 0,0 0 1.026,0
05:24 13,3 11,0 12,5 85,6 0,3 116 - 0,0 0 1.026,0
05:23 13,3 10,9 12,5 85,0 0,4 97 - 0,0 0 1.025,9
05:22 13,3 10,9 12,5 85,0 0,5 132 - 0,0 0 1.025,9
05:21 13,3 10,9 12,5 85,0 0,5 174 - 0,0 0 1.025,9
05:20 13,4 10,9 12,5 85,0 0,5 106 - 0,0 0 1.026,0
05:19 13,4 10,9 12,5 85,0 0,4 141 - 0,0 0 1.026,0
05:18 13,4 10,9 12,5 85,0 0,3 192 - 0,0 0 1.026,1
05:17 13,4 10,9 12,5 85,0 0,2 86 - 0,0 0 1.026,0
05:16 13,4 10,9 12,5 85,0 0,2 83 - 0,0 0 1.026,1
05:15 13,4 10,9 12,5 85,0 0,3 201 - 0,0 0 1.026,1
05:14 13,4 11,0 12,6 85,0 0,3 105 - 0,0 0 1.026,1
05:13 13,4 11,0 12,6 85,0 0,4 155 - 0,0 0 1.026,1
05:12 13,4 11,0 12,6 85,0 0,5 153 - 0,0 0 1.026,1
05:11 13,5 11,0 12,6 85,0 0,6 179 - 0,0 0 1.026,2
05:10 13,4 11,0 12,6 85,0 0,6 191 - 0,0 0 1.026,2
05:09 13,5 11,0 12,6 85,0 0,6 190 - 0,0 0 1.026,2
05:08 13,5 11,0 12,6 85,0 0,7 213 - 0,0 0 1.026,2
05:07 13,5 11,0 12,6 85,0 0,8 186 - 0,0 0 1.026,2
05:06 13,5 11,0 12,6 85,0 0,9 189 - 0,0 0 1.026,2
05:05 13,5 11,0 12,6 85,0 0,9 176 - 0,0 0 1.026,2
05:04 13,5 11,0 12,6 85,0 0,7 199 - 0,0 0 1.026,3
05:03 13,5 11,0 12,6 85,0 0,7 182 - 0,0 0 1.026,2
05:02 13,5 11,0 12,6 85,0 0,6 192 - 0,0 0 1.026,2
05:01 13,5 11,0 12,7 85,0 0,6 204 - 0,0 0 1.026,2
05:00 13,5 11,1 12,7 85,0 0,4 184 - 0,0 0 1.026,3
 
04:59 13,6 11,1 12,7 85,0 0,5 173 - 0,0 0 1.026,3
04:58 13,6 11,1 12,7 85,0 0,7 173 - 0,0 0 1.026,3
04:57 13,6 11,1 12,7 85,0 0,9 197 - 0,0 0 1.026,3
04:56 13,6 11,1 12,7 85,0 1,0 183 - 0,0 0 1.026,3
04:55 13,6 11,1 12,7 85,0 1,0 173 - 0,0 0 1.026,3
04:54 13,6 11,1 12,7 85,0 1,1 188 - 0,0 0 1.026,3
04:53 13,6 11,1 12,7 85,0 1,0 186 - 0,0 0 1.026,4
04:52 13,6 11,1 12,7 85,0 1,0 180 - 0,0 0 1.026,4
04:51 13,6 11,1 12,7 85,0 1,0 178 - 0,0 0 1.026,4
04:50 13,6 11,1 12,7 85,0 1,0 190 - 0,0 0 1.026,4
04:49 13,6 11,1 12,7 85,0 0,6 176 - 0,0 0 1.026,3
04:48 13,6 11,1 12,7 85,0 0,4 147 - 0,0 0 1.026,3
04:47 13,6 11,1 12,7 85,0 0,2 141 - 0,0 0 1.026,3
04:46 13,6 11,1 12,8 85,0 0,3 142 - 0,0 0 1.026,3
04:45 13,6 11,2 12,8 85,0 0,3 138 - 0,0 0 1.026,3
04:44 13,6 11,2 12,8 85,0 0,3 138 - 0,0 0 1.026,3
04:43 13,7 11,2 12,8 85,0 0,3 182 - 0,0 0 1.026,3
04:42 13,7 11,2 12,8 85,0 0,5 182 - 0,0 0 1.026,4
04:41 13,7 11,2 12,8 85,0 0,8 188 - 0,0 0 1.026,4
04:40 13,7 11,0 12,7 84,1 1,0 192 - 0,0 0 1.026,3
04:39 13,7 11,0 12,7 84,0 1,2 166 - 0,0 0 1.026,3
04:38 13,7 11,0 12,7 84,0 1,2 176 - 0,0 0 1.026,3
04:37 13,7 11,0 12,7 84,0 1,1 199 - 0,0 0 1.026,3
04:36 13,7 11,0 12,7 84,0 0,9 181 - 0,0 0 1.026,3
04:35 13,7 11,1 12,7 84,0 1,0 176 - 0,0 0 1.026,3
04:34 13,7 11,1 12,7 84,0 1,3 184 - 0,0 0 1.026,3
04:33 13,7 11,1 12,7 84,0 1,7 163 - 0,0 0 1.026,3
04:32 13,7 11,1 12,7 84,0 1,9 180 - 0,0 0 1.026,3
04:31 13,7 11,1 12,7 84,0 2,0 178 - 0,0 0 1.026,3
04:30 13,7 11,1 12,7 84,0 2,0 182 - 0,0 0 1.026,4
04:29 13,7 11,1 12,7 84,0 2,0 218 - 0,0 0 1.026,5
04:28 13,7 11,1 12,8 84,0 1,8 171 - 0,0 0 1.026,5
04:27 13,7 11,1 12,8 84,0 1,7 172 - 0,0 0 1.026,5
04:26 13,7 11,1 12,8 84,0 1,6 165 - 0,0 0 1.026,6
04:25 13,8 11,1 12,8 84,0 1,5 168 - 0,0 0 1.026,5
04:24 13,8 11,1 12,8 84,0 1,5 182 - 0,0 0 1.026,5
04:23 13,8 11,1 12,8 84,0 1,4 180 - 0,0 0 1.026,5
04:22 13,8 11,1 12,8 84,0 1,4 178 - 0,0 0 1.026,5
04:21 13,8 11,1 12,8 84,0 1,7 180 - 0,0 0 1.026,5
04:20 13,8 11,1 12,8 84,0 2,0 189 - 0,0 0 1.026,5
04:19 13,8 11,1 12,8 84,0 1,8 182 - 0,0 0 1.026,4
04:18 13,8 11,1 12,8 84,0 1,6 186 - 0,0 0 1.026,4
04:17 13,8 11,1 12,8 84,0 1,6 193 - 0,0 0 1.026,5
04:16 13,8 11,1 12,8 84,0 1,7 169 - 0,0 0 1.026,5
04:15 13,8 11,2 12,8 84,0 1,8 184 - 0,0 0 1.026,5
04:14 13,8 11,2 12,9 84,0 1,9 196 - 0,0 0 1.026,4
04:13 13,8 11,2 12,9 84,0 1,9 186 - 0,0 0 1.026,5
04:12 13,8 11,2 12,9 84,0 1,9 192 - 0,0 0 1.026,5
04:11 13,8 11,2 12,9 84,0 2,1 197 - 0,0 0 1.026,5
04:10 13,8 11,2 12,9 84,0 2,1 188 - 0,0 0 1.026,5
04:09 13,8 11,2 12,9 84,0 2,1 182 - 0,0 0 1.026,5
04:08 13,9 11,2 12,9 84,0 2,1 180 - 0,0 0 1.026,5
04:07 13,9 11,1 12,8 83,5 2,1 184 - 0,0 0 1.026,5
04:06 13,9 11,1 12,8 83,0 1,9 176 - 0,0 0 1.026,5
04:05 13,9 11,1 12,8 83,0 1,9 188 - 0,0 0 1.026,4
04:04 13,9 11,1 12,8 83,0 1,9 189 - 0,0 0 1.026,4
04:03 13,9 11,1 12,8 83,0 1,9 203 - 0,0 0 1.026,4
04:02 13,9 11,1 12,8 83,0 1,7 194 - 0,0 0 1.026,4
04:01 13,9 11,1 12,8 83,0 1,6 199 - 0,0 0 1.026,5
04:00 13,9 11,1 12,8 83,0 1,7 211 - 0,0 0 1.026,5
 
03:59 13,9 11,1 12,8 83,0 1,7 180 - 0,0 0 1.026,4
03:58 13,9 11,1 12,8 83,0 1,8 198 - 0,0 0 1.026,4
03:57 13,9 11,1 12,8 83,0 1,8 193 - 0,0 0 1.026,4
03:56 13,9 11,1 12,8 83,0 1,9 190 - 0,0 0 1.026,4
03:55 13,9 11,1 12,9 83,0 2,0 196 - 0,0 0 1.026,4
03:54 13,9 11,1 12,8 83,0 2,2 190 - 0,0 0 1.026,4
03:53 13,9 11,1 12,8 83,0 2,4 176 - 0,0 0 1.026,4
03:52 13,9 11,1 12,8 83,0 2,5 204 - 0,0 0 1.026,3
03:51 13,9 11,1 12,9 83,0 2,4 180 - 0,0 0 1.026,3
03:50 13,9 11,1 12,9 83,0 2,4 200 - 0,0 0 1.026,3
03:49 13,9 11,1 12,8 83,0 2,4 209 - 0,0 0 1.026,3
03:48 13,9 11,0 12,8 82,3 2,3 204 - 0,0 0 1.026,3
03:47 13,9 10,9 12,7 82,0 2,3 211 - 0,0 0 1.026,3
03:46 13,9 10,9 12,7 82,0 2,3 221 - 0,0 0 1.026,3
03:45 13,9 10,9 12,7 82,0 2,2 201 - 0,0 0 1.026,3
03:44 13,9 10,9 12,7 82,0 2,1 195 - 0,0 0 1.026,3
03:43 13,9 10,9 12,7 82,0 2,0 184 - 0,0 0 1.026,4
03:42 13,9 10,9 12,7 82,0 2,0 210 - 0,0 0 1.026,4
03:41 13,9 10,9 12,7 82,0 2,0 192 - 0,0 0 1.026,4
03:40 13,9 10,9 12,7 82,0 1,8 190 - 0,0 0 1.026,4
03:39 13,9 10,9 12,7 82,0 1,6 178 - 0,0 0 1.026,4
03:38 13,9 10,8 12,6 82,0 1,5 186 - 0,0 0 1.026,3
03:37 13,8 10,8 12,6 82,0 1,4 174 - 0,0 0 1.026,3
03:36 13,8 10,8 12,6 82,0 1,3 190 - 0,0 0 1.026,3
03:35 13,8 10,8 12,6 82,0 1,7 175 - 0,0 0 1.026,4
03:34 13,8 10,8 12,6 82,0 2,3 196 - 0,0 0 1.026,3
03:33 13,8 10,8 12,6 82,0 2,7 208 - 0,0 0 1.026,3
03:32 13,8 10,8 12,6 82,0 2,8 200 - 0,0 0 1.026,3
03:31 13,8 10,8 12,6 82,0 2,8 203 - 0,0 0 1.026,3
03:30 13,8 10,8 12,6 82,0 2,6 203 - 0,0 0 1.026,3
03:29 13,8 10,7 12,5 82,0 2,4 210 - 0,0 0 1.026,3
03:28 13,7 10,7 12,5 82,0 2,4 213 - 0,0 0 1.026,3
03:27 13,7 10,7 12,5 82,0 2,5 199 - 0,0 0 1.026,3
03:26 13,7 10,7 12,5 82,0 2,4 193 - 0,0 0 1.026,2
03:25 13,7 10,7 12,5 82,0 2,2 190 - 0,0 0 1.026,2
03:24 13,7 10,5 12,4 81,2 1,9 174 - 0,0 0 1.026,2
03:23 13,7 10,5 12,4 81,0 1,6 181 - 0,0 0 1.026,3
03:22 13,7 10,5 12,4 81,0 1,1 184 - 0,0 0 1.026,3
03:21 13,7 10,5 12,4 81,0 0,5 184 - 0,0 0 1.026,3
03:20 13,7 10,5 12,4 81,0 0,2 130 - 0,0 0 1.026,3
03:19 13,8 10,6 12,4 81,0 0,2 100 - 0,0 0 1.026,3
03:18 13,8 10,6 12,5 81,0 0,3 93 - 0,0 0 1.026,3
03:17 13,8 10,6 12,5 81,0 0,3 159 - 0,0 0 1.026,3
03:16 13,8 10,6 12,5 81,0 0,2 163 - 0,0 0 1.026,3
03:15 13,8 10,6 12,5 81,0 0,2 164 - 0,0 0 1.026,3
03:14 13,8 10,6 12,5 81,0 0,3 176 - 0,0 0 1.026,3
03:13 13,8 10,6 12,5 81,0 0,5 182 - 0,0 0 1.026,2
03:12 13,8 10,6 12,5 81,0 0,7 180 - 0,0 0 1.026,2
03:11 13,8 10,6 12,5 81,0 1,0 182 - 0,0 0 1.026,2
03:10 13,8 10,6 12,5 81,0 1,2 175 - 0,0 0 1.026,2
03:09 13,8 10,6 12,5 81,0 1,5 183 - 0,0 0 1.026,2
03:08 13,8 10,6 12,5 81,0 1,7 178 - 0,0 0 1.026,1
03:07 13,8 10,6 12,5 81,0 1,4 185 - 0,0 0 1.026,1
03:06 13,8 10,6 12,5 81,0 1,0 196 - 0,0 0 1.026,1
03:05 13,8 10,7 12,5 81,0 0,7 172 - 0,0 0 1.026,1
03:04 13,8 10,7 12,5 81,0 0,6 172 - 0,0 0 1.026,2
03:03 13,9 10,7 12,5 81,0 0,3 192 - 0,0 0 1.026,2
03:02 13,9 10,7 12,6 81,0 0,3 173 - 0,0 0 1.026,2
03:01 13,9 10,7 12,6 81,0 0,4 173 - 0,0 0 1.026,2
03:00 13,9 10,7 12,6 81,0 0,5 163 - 0,0 0 1.026,2
 
02:59 13,9 10,8 12,6 81,0 0,5 140 - 0,0 0 1.026,2
02:58 13,9 10,8 12,6 81,0 0,5 110 - 0,0 0 1.026,2
02:57 14,0 10,8 12,7 81,0 0,6 153 - 0,0 0 1.026,1
02:56 14,0 10,8 12,7 81,0 0,8 145 - 0,0 0 1.026,1
02:55 14,0 10,8 12,7 81,0 0,9 158 - 0,0 0 1.026,1
02:54 14,1 10,9 12,7 81,0 0,9 101 - 0,0 0 1.026,2
02:53 14,0 10,9 12,7 81,0 1,0 101 - 0,0 0 1.026,1
02:52 14,1 10,9 12,7 81,0 1,0 98 - 0,0 0 1.026,1
02:51 14,1 10,9 12,8 81,0 1,0 95 - 0,0 0 1.026,1
02:50 14,1 10,9 12,8 81,0 1,0 102 - 0,0 0 1.026,1
02:49 14,1 10,9 12,8 81,0 0,8 107 - 0,0 0 1.026,1
02:48 14,1 10,9 12,8 81,0 0,6 91 - 0,0 0 1.026,1
02:47 14,1 10,9 12,8 81,0 0,6 122 - 0,0 0 1.026,1
02:46 14,2 11,0 12,8 81,0 0,8 132 - 0,0 0 1.026,1
02:45 14,2 11,0 12,8 81,0 0,8 109 - 0,0 0 1.026,1
02:44 14,2 11,0 12,8 81,0 0,7 101 - 0,0 0 1.026,1
02:43 14,2 11,0 12,9 81,0 0,5 138 - 0,0 0 1.026,1
02:42 14,2 11,0 12,9 81,0 0,4 126 - 0,0 0 1.026,1
02:41 14,2 11,0 12,9 81,0 0,4 129 - 0,0 0 1.026,1
02:40 14,2 11,0 12,9 81,0 0,7 130 - 0,0 0 1.026,1
02:39 14,2 11,0 12,9 81,0 0,7 107 - 0,0 0 1.026,1
02:38 14,2 11,0 12,9 81,0 0,5 150 - 0,0 0 1.026,1
02:37 14,3 11,1 12,9 81,0 0,3 161 - 0,0 0 1.026,1
02:36 14,3 11,1 13,0 81,0 0,2 163 - 0,0 0 1.026,1
02:35 14,3 11,1 13,0 81,0 0,3 165 - 0,0 0 1.026,1
02:34 14,3 11,0 12,9 80,6 0,3 167 - 0,0 0 1.026,1
02:33 14,3 10,9 12,8 80,0 0,2 152 - 0,0 0 1.026,1
02:32 14,3 10,9 12,8 80,0 0,2 152 - 0,0 0 1.026,2
02:31 14,3 10,9 12,8 80,0 0,2 151 - 0,0 0 1.026,2
02:30 14,3 10,9 12,8 80,0 0,3 181 - 0,0 0 1.026,1
02:29 14,3 10,9 12,8 80,0 0,5 181 - 0,0 0 1.026,1
02:28 14,3 10,9 12,9 80,0 0,7 165 - 0,0 0 1.026,1
02:27 14,3 10,9 12,8 80,0 0,8 184 - 0,0 0 1.026,1
02:26 14,3 10,9 12,8 80,0 1,1 184 - 0,0 0 1.026,1
02:25 14,3 10,9 12,8 80,0 1,4 165 - 0,0 0 1.026,2
02:24 14,3 10,9 12,9 80,0 1,6 182 - 0,0 0 1.026,2
02:23 14,3 10,9 12,9 80,0 1,7 180 - 0,0 0 1.026,2
02:22 14,3 10,9 12,8 80,0 1,8 180 - 0,0 0 1.026,2
02:21 14,3 10,9 12,9 80,0 2,0 190 - 0,0 0 1.026,3
02:20 14,3 10,9 12,9 80,0 1,9 190 - 0,0 0 1.026,3
02:19 14,3 11,0 12,9 80,0 1,7 202 - 0,0 0 1.026,3
02:18 14,3 11,0 12,9 80,0 1,7 183 - 0,0 0 1.026,4
02:17 14,3 11,0 12,9 80,0 1,8 181 - 0,0 0 1.026,3
02:16 14,4 11,0 12,9 80,0 1,9 178 - 0,0 0 1.026,3
02:15 14,4 11,0 12,9 80,0 2,0 184 - 0,0 0 1.026,3
02:14 14,4 11,0 12,9 80,0 1,9 209 - 0,0 0 1.026,3
02:13 14,4 11,0 12,9 80,0 1,7 191 - 0,0 0 1.026,3
02:12 14,4 11,0 13,0 80,0 1,7 188 - 0,0 0 1.026,4
02:11 14,4 11,0 12,9 79,6 1,9 185 - 0,0 0 1.026,3
02:10 14,4 10,9 12,9 79,0 2,0 177 - 0,0 0 1.026,3
02:09 14,4 10,9 12,9 79,0 2,0 178 - 0,0 0 1.026,4
02:08 14,4 10,9 12,9 79,0 2,1 192 - 0,0 0 1.026,4
02:07 14,4 10,9 12,9 79,0 2,2 196 - 0,0 0 1.026,4
02:06 14,4 10,9 12,9 79,0 2,4 198 - 0,0 0 1.026,4
02:05 14,5 10,9 12,9 79,0 2,3 182 - 0,0 0 1.026,4
02:04 14,5 10,9 12,9 79,0 2,2 183 - 0,0 0 1.026,3
02:03 14,6 11,0 13,0 79,0 2,2 178 - 0,0 0 1.026,3
02:02 14,6 10,8 12,9 78,2 2,3 186 - 0,0 0 1.026,3
02:01 14,6 10,8 12,9 78,0 2,3 175 - 0,0 0 1.026,3
02:00 14,6 10,9 12,9 78,0 2,5 195 - 0,0 0 1.026,3
 
01:59 14,7 10,9 13,0 78,0 2,4 184 - 0,0 0 1.026,3
01:58 14,7 11,0 13,0 78,0 2,2 201 - 0,0 0 1.026,3
01:57 14,8 11,0 13,1 78,0 2,0 182 - 0,0 0 1.026,3
01:56 14,8 11,0 13,1 78,0 1,7 180 - 0,0 0 1.026,3
01:55 14,8 11,0 13,1 78,0 1,3 172 - 0,0 0 1.026,3
01:54 14,8 11,0 13,1 78,0 0,9 182 - 0,0 0 1.026,4
01:53 14,8 11,0 13,1 78,0 0,7 182 - 0,0 0 1.026,4
01:52 14,8 11,1 13,1 78,0 0,8 181 - 0,0 0 1.026,3
01:51 14,8 11,1 13,1 78,0 1,0 185 - 0,0 0 1.026,3
01:50 14,9 11,1 13,2 78,0 1,1 164 - 0,0 0 1.026,3
01:49 14,9 11,1 13,2 78,0 1,1 183 - 0,0 0 1.026,3
01:48 14,9 11,1 13,2 78,0 1,0 175 - 0,0 0 1.026,3
01:47 14,9 11,0 13,1 77,4 1,1 151 - 0,0 0 1.026,3
01:46 14,9 11,0 13,1 77,0 1,5 178 - 0,0 0 1.026,3
01:45 15,0 11,0 13,1 77,0 2,0 180 - 0,0 0 1.026,2
01:44 15,0 11,1 13,2 77,0 2,2 184 - 0,0 0 1.026,2
01:43 15,0 11,1 13,2 77,0 2,3 195 - 0,0 0 1.026,2
01:42 15,1 11,1 13,3 77,0 2,4 194 - 0,0 0 1.026,2
01:41 15,2 11,1 13,3 76,5 2,5 197 - 0,0 0 1.026,2
01:40 15,2 11,1 13,3 76,0 2,5 197 - 0,0 0 1.026,2
01:39 15,3 11,3 13,4 76,8 2,4 194 - 0,0 0 1.026,2
01:38 15,3 11,4 13,5 77,0 2,0 194 - 0,0 0 1.026,2
01:37 15,4 11,4 13,6 77,0 1,5 188 - 0,0 0 1.026,2
01:36 15,4 11,5 13,6 77,0 0,8 173 - 0,0 0 1.026,2
01:35 15,4 11,5 13,6 77,0 0,4 147 - 0,0 0 1.026,2
01:34 15,4 11,5 13,6 77,0 0,2 147 - 0,0 0 1.026,2
01:33 15,4 11,5 13,6 77,0 0,4 147 - 0,0 0 1.026,1
01:32 15,5 11,5 13,6 77,0 0,5 143 - 0,0 0 1.026,2
01:31 15,5 11,5 13,7 77,0 0,6 142 - 0,0 0 1.026,1
01:30 15,5 11,5 13,7 77,0 0,7 97 - 0,0 0 1.026,1
01:29 15,5 11,5 13,7 77,0 0,8 94 - 0,0 0 1.026,1
01:28 15,5 11,6 13,7 77,0 0,7 84 - 0,0 0 1.026,1
01:27 15,6 11,6 13,7 77,0 0,5 157 - 0,0 0 1.026,1
01:26 15,6 11,6 13,7 77,0 0,3 168 - 0,0 0 1.026,2
01:25 15,6 11,6 13,7 77,0 0,2 176 - 0,0 0 1.026,2
01:24 15,6 11,5 13,7 76,6 0,4 176 - 0,0 0 1.026,2
01:23 15,6 11,5 13,7 76,0 1,0 177 - 0,0 0 1.026,1
01:22 15,7 11,5 13,7 76,0 1,5 164 - 0,0 0 1.026,2
01:21 15,7 11,5 13,7 76,0 1,9 181 - 0,0 0 1.026,2
01:20 15,8 11,6 13,8 76,0 2,1 186 - 0,0 0 1.026,2
01:19 15,8 11,6 13,8 76,0 2,1 182 - 0,0 0 1.026,2
01:18 15,8 11,7 13,9 76,0 2,1 187 - 0,0 0 1.026,2
01:17 15,9 11,7 13,9 76,0 2,2 198 - 0,0 0 1.026,2
01:16 15,9 11,7 13,9 76,0 2,1 193 - 0,0 0 1.026,2
01:15 15,9 11,7 14,0 76,0 2,1 208 - 0,0 0 1.026,2
01:14 16,0 11,8 14,0 76,0 2,0 214 - 0,0 0 1.026,2
01:13 16,0 11,7 14,0 75,5 2,0 207 - 0,0 0 1.026,2
01:12 16,0 11,7 14,0 75,0 2,0 228 - 0,0 0 1.026,2
01:11 16,1 11,7 14,0 75,0 2,2 208 - 0,0 0 1.026,2
01:10 16,2 11,8 14,1 75,0 2,2 211 - 0,0 0 1.026,2
01:09 16,2 11,8 14,1 75,0 2,1 197 - 0,0 0 1.026,3
01:08 16,3 11,9 14,2 75,0 2,0 195 - 0,0 0 1.026,2
01:07 16,3 12,0 14,2 75,0 1,9 202 - 0,0 0 1.026,2
01:06 16,4 12,0 14,3 75,0 1,9 175 - 0,0 0 1.026,2
01:05 16,4 12,1 14,3 75,0 1,9 202 - 0,0 0 1.026,2
01:04 16,5 12,1 14,4 75,0 1,9 196 - 0,0 0 1.026,1
01:03 16,5 12,2 14,4 75,0 2,0 206 - 0,0 0 1.026,1
01:02 16,6 12,2 14,5 75,0 2,2 250 - 0,0 0 1.026,1
01:01 16,6 12,2 14,5 75,0 2,5 224 - 0,0 0 1.026,1
01:00 16,7 12,3 14,5 75,0 2,9 232 - 0,0 0 1.026,1
 
00:59 16,7 12,3 14,5 75,0 3,4 226 - 0,0 0 1.026,1
00:58 16,6 12,3 14,5 75,0 3,6 256 - 0,0 0 1.026,1
00:57 16,7 12,3 14,5 75,0 3,7 271 - 0,0 0 1.026,0
00:56 16,7 12,2 14,5 74,8 3,6 271 - 0,0 0 1.026,1
00:55 16,7 12,1 14,4 74,0 3,7 255 - 0,0 0 1.026,1
00:54 16,7 12,1 14,4 74,0 3,8 267 - 0,0 0 1.026,1
00:53 16,7 12,1 14,4 74,0 3,7 264 - 0,0 0 1.026,1
00:52 16,7 12,1 14,4 74,0 3,5 255 - 0,0 0 1.026,1
00:51 16,7 12,3 14,6 74,9 3,4 254 - 0,0 0 1.026,1
00:50 16,7 12,1 14,4 74,0 3,6 253 - 0,0 0 1.026,0
00:49 16,7 12,1 14,4 74,0 4,1 271 - 0,0 0 1.026,0
00:48 16,7 12,1 14,5 74,0 4,4 263 - 0,0 0 1.026,0
00:47 16,7 12,1 14,5 74,0 4,5 248 - 0,0 0 1.026,0
00:46 16,7 12,1 14,5 74,0 4,3 260 - 0,0 0 1.025,9
00:45 16,7 12,1 14,5 74,0 4,2 216 - 0,0 0 1.025,9
00:44 16,7 12,1 14,5 74,0 4,2 259 - 0,0 0 1.025,9
00:43 16,7 12,1 14,5 74,0 4,6 273 - 0,0 0 1.025,9
00:42 16,8 12,2 14,5 74,0 4,8 261 - 0,0 0 1.026,0
00:41 16,7 12,0 14,4 73,3 5,0 260 - 0,0 0 1.026,0
00:40 16,7 11,9 14,3 73,0 5,1 260 - 0,0 0 1.026,0
00:39 16,7 11,9 14,4 73,0 5,1 262 - 0,0 0 1.026,0
00:38 16,8 12,0 14,4 73,0 5,1 276 - 0,0 0 1.026,1
00:37 16,8 12,0 14,4 73,0 5,0 270 - 0,0 0 1.026,1
00:36 16,8 12,0 14,4 73,0 4,7 272 - 0,0 0 1.026,1
00:35 16,8 12,1 14,5 73,8 4,8 294 - 0,0 0 1.026,1
00:34 16,8 12,1 14,5 73,8 5,0 276 - 0,0 0 1.026,0
00:33 16,8 12,0 14,4 73,0 5,0 278 - 0,0 0 1.026,1
00:32 16,8 12,0 14,4 73,0 4,6 282 - 0,0 0 1.026,1
00:31 16,8 12,0 14,4 73,0 4,2 267 - 0,0 0 1.026,1
00:30 16,8 12,0 14,4 73,0 4,1 249 - 0,0 0 1.026,1
00:29 16,8 12,0 14,4 73,0 4,5 280 - 0,0 0 1.026,0
00:28 16,8 12,0 14,4 73,0 5,0 274 - 0,0 0 1.026,0
00:27 16,8 12,0 14,4 73,2 5,0 276 - 0,0 0 1.026,1
00:26 16,8 12,2 14,5 74,0 4,6 287 - 0,0 0 1.026,1
00:25 16,8 12,1 14,5 73,5 4,2 269 - 0,0 0 1.026,0
00:24 16,8 12,0 14,4 73,0 4,0 271 - 0,0 0 1.026,0
00:23 16,8 12,0 14,4 73,0 4,1 290 - 0,0 0 1.026,0
00:22 16,8 12,0 14,4 73,0 4,5 280 - 0,0 0 1.026,0
00:21 16,8 11,9 14,3 72,8 4,6 287 - 0,0 0 1.026,0
00:20 16,7 11,8 14,3 72,4 4,6 286 - 0,0 0 1.025,9
00:19 16,8 12,0 14,4 73,0 4,9 257 - 0,0 0 1.025,9
00:18 16,8 12,0 14,4 73,0 5,2 277 - 0,0 0 1.025,9
00:17 16,7 11,8 14,3 72,2 5,3 279 - 0,0 0 1.025,9
00:16 16,8 11,8 14,3 72,1 5,3 288 - 0,0 0 1.025,9
00:15 16,8 12,0 14,4 73,0 5,2 265 - 0,0 0 1.025,9
00:14 16,8 12,0 14,4 73,0 5,0 263 - 0,0 0 1.025,8
00:13 16,7 11,8 14,3 72,5 4,7 282 - 0,0 0 1.025,9
00:12 16,8 11,9 14,3 72,7 4,7 276 - 0,0 0 1.025,8
00:11 16,8 11,8 14,3 72,2 4,8 286 - 0,0 0 1.025,8
00:10 16,8 12,0 14,4 73,0 4,7 278 - 0,0 0 1.025,8
00:09 16,8 12,0 14,4 73,0 4,6 270 - 0,0 0 1.025,8
00:08 16,8 12,0 14,4 73,0 4,8 252 - 0,0 0 1.025,8
00:07 16,8 12,0 14,4 73,0 4,8 248 - 0,0 0 1.025,8
00:06 16,8 12,0 14,4 73,0 4,7 276 - 0,0 0 1.025,8
00:05 16,8 11,8 14,3 72,2 4,7 259 - 0,0 0 1.025,8
00:04 16,8 11,8 14,3 72,2 4,6 282 - 0,0 0 1.025,8
00:03 16,8 12,0 14,4 73,0 4,5 247 - 0,0 0 1.025,8
00:02 16,8 11,9 14,3 72,6 4,5 281 - 0,0 0 1.025,8
00:01 16,7 11,7 14,2 72,0 4,8 287 - 0,0 0 1.025,8
00:00 16,7 11,9 14,3 72,7 5,2 258 - 0,0 0 1.025,8
 
23:59 16,7 11,9 14,4 73,0 5,1 271 - 0,0 0 1.025,9
23:58 16,8 12,1 14,5 73,8 4,8 282 - 0,0 0 1.025,8
23:57 16,8 12,0 14,4 73,0 4,5 275 - 0,0 0 1.025,8
23:56 16,7 11,9 14,3 73,0 4,4 292 - 0,0 0 1.025,9
23:55 16,7 11,8 14,2 72,4 4,5 286 - 0,0 0 1.025,9
23:54 16,7 11,7 14,2 72,0 4,5 274 - 0,0 0 1.025,8
23:53 16,7 11,7 14,2 72,0 4,5 288 - 0,0 0 1.025,8
23:52 16,6 11,6 14,1 72,0 4,5 283 - 0,0 0 1.025,8
23:51 16,7 11,7 14,2 72,0 4,6 305 - 0,0 0 1.025,7
23:50 16,7 11,7 14,2 72,0 4,7 279 - 0,0 0 1.025,6
23:49 16,7 11,8 14,2 72,6 4,7 281 - 0,0 0 1.025,7
23:48 16,7 11,9 14,3 73,0 4,6 293 - 0,0 0 1.025,6
23:47 16,7 11,9 14,3 73,0 4,5 290 - 0,0 0 1.025,6
23:46 16,6 11,7 14,1 72,2 4,6 286 - 0,0 0 1.025,6
23:45 16,6 11,8 14,2 72,7 4,7 285 - 0,0 0 1.025,6
23:44 16,6 11,7 14,2 72,5 4,8 286 - 0,0 0 1.025,6
23:43 16,6 11,8 14,2 73,0 4,8 275 - 0,0 0 1.025,7
23:42 16,6 11,8 14,3 73,0 4,6 287 - 0,0 0 1.025,8
23:41 16,6 11,6 14,1 72,1 4,2 269 - 0,0 0 1.025,8
23:40 16,6 11,6 14,1 72,0 3,9 269 - 0,0 0 1.025,8
23:39 16,6 11,6 14,1 72,0 3,9 293 - 0,0 0 1.025,8
23:38 16,6 11,6 14,1 72,0 4,0 294 - 0,0 0 1.025,8
23:37 16,7 11,8 14,2 72,7 4,3 297 - 0,0 0 1.025,8
23:36 16,6 11,7 14,2 72,2 4,7 277 - 0,0 0 1.025,8
23:35 16,7 11,8 14,3 72,9 4,8 265 - 0,0 0 1.025,8
23:34 16,6 11,6 14,1 72,0 4,5 264 - 0,0 0 1.025,7
23:33 16,6 11,6 14,1 72,0 4,5 291 - 0,0 0 1.025,7
23:32 16,6 11,6 14,1 72,0 4,6 287 - 0,0 0 1.025,6
23:31 16,6 11,6 14,1 72,0 4,9 280 - 0,0 0 1.025,6
23:30 16,6 11,8 14,2 72,8 5,0 288 - 0,0 0 1.025,6
23:29 16,6 11,6 14,1 72,1 4,9 300 - 0,0 0 1.025,6
23:28 16,6 11,6 14,1 72,0 4,5 287 - 0,0 0 1.025,6
23:27 16,6 11,7 14,2 72,4 4,3 303 - 0,0 0 1.025,7
23:26 16,7 11,9 14,3 73,0 4,3 289 - 0,0 0 1.025,6
23:25 16,7 11,7 14,2 72,3 4,2 285 - 0,0 0 1.025,6
23:24 16,7 11,8 14,3 72,9 4,1 299 - 0,0 0 1.025,6
23:23 16,7 11,7 14,2 72,1 4,3 290 - 0,0 0 1.025,6
23:22 16,6 11,6 14,1 72,0 4,4 290 - 0,0 0 1.025,6
23:21 16,6 11,6 14,1 72,0 4,4 293 - 0,0 0 1.025,6
23:20 16,6 11,6 14,1 72,0 4,1 295 - 0,0 0 1.025,6
23:19 16,6 11,6 14,1 72,0 4,1 278 - 0,0 0 1.025,5
23:18 16,6 11,6 14,1 72,0 4,2 292 - 0,0 0 1.025,5
23:17 16,7 11,7 14,2 72,0 4,5 259 - 0,0 0 1.025,5
23:16 16,7 11,7 14,2 72,0 4,6 279 - 0,0 0 1.025,5
23:15 16,7 11,7 14,2 72,0 4,6 292 - 0,0 0 1.025,5
23:14 16,7 11,7 14,2 72,0 4,6 298 - 0,0 0 1.025,5
23:13 16,7 11,7 14,1 72,0 4,6 298 - 0,0 0 1.025,5
23:12 16,7 11,5 14,0 71,1 4,5 289 - 0,0 0 1.025,6
23:11 16,6 11,4 14,0 71,0 4,3 289 - 0,0 0 1.025,6
23:10 16,6 11,5 14,0 71,3 4,3 296 - 0,0 0 1.025,6
23:09 16,7 11,6 14,1 71,6 4,4 303 - 0,0 0 1.025,6
23:08 16,6 11,4 14,0 71,0 4,4 299 - 0,0 0 1.025,6
23:07 16,7 11,6 14,1 71,8 4,5 293 - 0,0 0 1.025,6
23:06 16,7 11,9 14,3 72,9 4,4 306 - 0,0 0 1.025,6
23:05 16,7 11,7 14,2 72,0 4,3 323 - 0,0 0 1.025,6
23:04 16,7 11,7 14,2 72,0 4,1 308 - 0,0 0 1.025,5
23:03 16,7 11,7 14,2 72,0 4,3 284 - 0,0 0 1.025,5
23:02 16,7 11,7 14,2 72,0 4,4 300 - 0,0 0 1.025,5
23:01 16,7 11,7 14,2 72,0 4,5 288 - 0,0 0 1.025,6
23:00 16,7 11,5 14,0 71,1 4,5 304 - 0,0 0 1.025,5
 
22:59 16,6 11,4 14,0 71,0 4,5 307 - 0,0 0 1.025,5
22:58 16,6 11,4 14,0 71,0 4,7 299 - 0,0 0 1.025,4
22:57 16,6 11,5 14,1 71,5 4,8 294 - 0,0 0 1.025,5
22:56 16,7 11,7 14,2 72,0 4,6 268 - 0,0 0 1.025,4
22:55 16,7 11,7 14,2 72,0 4,4 297 - 0,0 0 1.025,4
22:54 16,7 11,7 14,2 72,0 4,3 296 - 0,0 0 1.025,4
22:53 16,7 11,6 14,1 71,8 4,2 298 - 0,0 0 1.025,4
22:52 16,7 11,5 14,1 71,4 4,2 317 - 0,0 0 1.025,4
22:51 16,7 11,7 14,2 72,0 4,5 305 - 0,0 0 1.025,3
22:50 16,7 11,7 14,2 72,0 4,6 313 - 0,0 0 1.025,3
22:49 16,7 11,7 14,1 72,0 4,4 316 - 0,0 0 1.025,3
22:48 16,7 11,5 14,0 71,1 4,4 307 - 0,0 0 1.025,3
22:47 16,7 11,4 14,0 71,0 4,5 308 - 0,0 0 1.025,2
22:46 16,7 11,5 14,0 71,0 4,7 306 - 0,0 0 1.025,2
22:45 16,7 11,5 14,0 71,0 4,7 317 - 0,0 0 1.025,2
22:44 16,7 11,5 14,0 71,0 4,6 301 - 0,0 0 1.025,2
22:43 16,7 11,4 14,0 71,0 4,4 311 - 0,0 0 1.025,3
22:42 16,7 11,5 14,0 71,0 4,4 293 - 0,0 0 1.025,3
22:41 16,7 11,5 14,0 71,0 4,5 309 - 0,0 0 1.025,3
22:40 16,7 11,5 14,0 71,0 3,6 326 - 0,0 0 1.025,4
22:39 16,7 11,5 14,0 71,0 3,4 224 - 0,0 0 1.025,4
22:38 16,7 11,5 14,0 71,0 3,8 304 - 0,0 0 1.025,4
22:37 16,7 11,5 14,0 71,0 4,9 314 - 0,0 0 1.025,4
22:36 16,7 11,5 14,0 71,0 4,9 318 - 0,0 0 1.025,4
22:35 16,7 11,5 14,0 71,0 4,8 299 - 0,0 0 1.025,4
22:34 16,7 11,5 14,0 71,0 4,7 315 - 0,0 0 1.025,4
22:33 16,7 11,5 14,1 71,0 4,8 267 - 0,0 0 1.025,4
22:32 16,7 11,5 14,1 71,0 5,1 305 - 0,0 0 1.025,3
22:31 16,7 11,5 14,1 71,0 5,4 302 - 0,0 0 1.025,3
22:30 16,7 11,5 14,0 71,0 5,4 307 - 0,0 0 1.025,2
22:29 16,7 11,5 14,0 71,0 5,5 319 - 0,0 0 1.025,2
22:28 16,7 11,5 14,0 71,0 5,6 315 - 0,0 0 1.025,2
22:27 16,7 11,5 14,1 71,0 5,6 323 - 0,0 0 1.025,2
22:26 16,7 11,5 14,1 71,0 5,6 320 - 0,0 0 1.025,2
22:25 16,7 11,5 14,0 71,0 5,5 320 - 0,0 0 1.025,2
22:24 16,7 11,4 14,0 70,8 5,3 306 - 0,0 0 1.025,2
22:23 16,7 11,3 14,0 70,4 5,3 295 - 0,0 0 1.025,2
22:22 16,7 11,6 14,1 71,5 5,4 303 - 0,0 0 1.025,3
22:21 16,8 11,8 14,2 72,0 5,4 305 - 0,0 0 1.025,3
22:20 16,7 11,5 14,1 71,2 5,2 325 - 0,0 0 1.025,3
22:19 16,7 11,5 14,1 71,0 5,1 310 - 0,0 0 1.025,3
22:18 16,7 11,5 14,1 71,0 4,8 303 - 0,0 0 1.025,3
22:17 16,7 11,5 14,1 71,0 4,7 355 - 0,0 0 1.025,3
22:16 16,7 11,4 14,0 70,5 4,7 313 - 0,0 0 1.025,3
22:15 16,7 11,3 13,9 70,0 5,0 311 - 0,0 0 1.025,3
22:14 16,7 11,3 13,9 70,0 5,2 305 - 0,0 0 1.025,2
22:13 16,7 11,5 14,0 70,9 5,1 303 - 0,0 0 1.025,2
22:12 16,7 11,3 13,9 70,0 4,9 328 - 0,0 0 1.025,3
22:11 16,7 11,2 13,8 69,6 4,8 319 - 0,0 0 1.025,2
22:10 16,7 11,2 13,8 69,6 4,9 317 - 0,0 0 1.025,2
22:09 16,7 11,4 14,0 70,7 5,2 305 - 0,0 0 1.025,2
22:08 16,7 11,5 14,1 71,0 5,4 296 - 0,0 0 1.025,3
22:07 16,7 11,5 14,1 71,0 5,2 299 - 0,0 0 1.025,3
22:06 16,7 11,5 14,1 71,0 5,1 319 - 0,0 0 1.025,3
22:05 16,7 11,5 14,1 71,0 5,0 292 - 0,0 0 1.025,4
22:04 16,7 11,5 14,1 71,0 5,1 301 - 0,0 0 1.025,3
22:03 16,7 11,4 14,0 70,3 5,2 323 - 0,0 0 1.025,3
22:02 16,7 11,5 14,1 70,9 5,2 290 - 0,0 0 1.025,4
22:01 16,8 11,6 14,1 71,0 5,3 309 - 0,0 0 1.025,4
22:00 16,8 11,6 14,2 71,3 5,5 313 - 0,0 0 1.025,3
 
21:59 16,8 11,8 14,3 72,0 5,6 300 - 0,0 0 1.025,2
21:58 16,8 11,8 14,3 72,0 5,6 305 - 0,0 0 1.025,3
21:57 16,8 11,8 14,3 72,0 5,6 320 - 0,0 0 1.025,3
21:56 16,8 11,6 14,1 71,2 5,7 306 - 0,0 0 1.025,3
21:55 16,8 11,4 14,0 70,1 5,9 307 - 0,0 0 1.025,3
21:54 16,8 11,4 14,0 70,3 6,2 302 - 0,0 0 1.025,3
21:53 16,8 11,6 14,1 71,0 6,3 301 - 0,0 0 1.025,3
21:52 16,8 11,7 14,2 71,6 6,2 315 - 0,0 0 1.025,2
21:51 16,8 11,8 14,3 72,0 5,8 304 - 0,0 0 1.025,3
21:50 16,8 11,6 14,1 71,1 5,5 309 - 0,0 0 1.025,4
21:49 16,8 11,7 14,3 71,8 5,5 305 - 0,0 0 1.025,4
21:48 16,8 11,6 14,2 71,3 5,7 317 - 0,0 0 1.025,3
21:47 16,8 11,8 14,3 72,0 5,8 299 - 0,0 0 1.025,3
21:46 16,8 11,8 14,3 72,0 5,8 309 - 0,0 0 1.025,2
21:45 16,8 11,8 14,3 72,0 5,7 295 - 0,0 0 1.025,2
21:44 16,8 11,8 14,3 72,0 5,8 320 - 0,0 0 1.025,2
21:43 16,9 11,9 14,4 72,0 5,8 305 - 0,0 0 1.025,2
21:42 16,9 11,9 14,4 72,0 5,8 303 - 0,0 0 1.025,2
21:41 16,9 11,8 14,3 71,5 5,8 307 - 0,0 0 1.025,1
21:40 16,9 11,7 14,2 71,0 6,0 314 - 0,0 0 1.025,2
21:39 16,9 11,8 14,3 71,8 6,0 302 - 0,0 0 1.025,2
21:38 16,9 11,7 14,2 71,1 6,2 299 - 0,0 0 1.025,2
21:37 16,9 11,7 14,3 71,0 6,5 311 - 0,0 0 1.025,2
21:36 16,9 11,6 14,2 70,7 6,7 294 - 0,0 0 1.025,2
21:35 16,9 11,6 14,2 70,5 6,8 294 - 0,0 0 1.025,2
21:34 16,9 11,7 14,3 71,0 6,8 299 - 0,0 0 1.025,1
21:33 17,0 12,1 14,5 72,6 6,6 311 - 0,0 0 1.025,1
21:32 17,0 12,1 14,6 72,9 6,4 294 - 0,0 0 1.025,1
21:31 16,9 11,9 14,4 71,8 6,4 300 - 0,0 0 1.025,2
21:30 16,9 11,7 14,3 71,0 6,6 301 - 0,0 0 1.025,2
21:29 17,0 11,8 14,4 71,5 6,6 281 - 0,0 0 1.025,1
21:28 17,0 11,8 14,3 71,3 6,5 302 - 0,0 0 1.025,1
21:27 17,0 11,9 14,4 71,8 6,3 296 - 0,0 0 1.025,1
21:26 16,9 11,5 14,2 70,1 6,2 319 - 0,0 0 1.025,1
21:25 16,9 11,6 14,2 70,3 6,5 283 - 0,0 0 1.025,1
21:24 16,9 11,7 14,3 71,0 6,9 280 - 0,0 0 1.025,0
21:23 16,9 11,6 14,2 70,5 6,8 301 - 0,0 0 1.025,1
21:22 16,9 11,5 14,1 70,0 6,8 288 - 0,0 0 1.024,9
21:21 16,9 11,5 14,1 70,0 7,3 303 - 0,0 0 1.024,9
21:20 17,0 11,8 14,4 71,3 7,6 294 - 0,0 0 1.024,9
21:19 17,0 12,0 14,5 72,0 7,4 303 - 0,0 0 1.024,9
21:18 17,0 12,0 14,5 72,0 7,1 313 - 0,0 0 1.024,9
21:17 16,9 11,7 14,3 70,9 7,0 308 - 0,0 0 1.024,9
21:16 16,9 11,5 14,1 70,0 7,1 309 - 0,0 0 1.024,9
21:15 17,0 11,7 14,3 70,9 7,3 288 - 0,0 0 1.025,0
21:14 17,0 11,6 14,2 70,2 7,3 285 - 0,0 0 1.025,0
21:13 17,0 11,8 14,4 71,0 7,2 307 - 0,0 0 1.025,1
21:12 17,0 11,9 14,4 71,5 7,1 290 - 0,0 0 1.025,0
21:11 17,1 11,9 14,5 71,4 7,0 286 - 0,0 0 1.024,9
21:10 17,1 12,0 14,5 71,8 6,8 294 - 0,0 0 1.024,9
21:09 17,1 12,1 14,6 72,0 6,6 296 - 0,0 0 1.024,9
21:08 17,1 12,1 14,6 72,0 6,3 308 - 0,0 0 1.024,9
21:07 17,1 12,0 14,5 71,7 6,1 291 - 0,0 0 1.024,9
21:06 17,1 11,8 14,4 71,0 6,5 263 - 0,0 0 1.024,8
21:05 17,1 11,9 14,4 71,0 7,0 308 - 0,0 0 1.024,8
21:04 17,1 11,9 14,4 71,0 7,5 298 - 0,0 0 1.024,7
21:03 17,1 11,6 14,3 70,1 7,5 301 - 0,0 0 1.024,7
21:02 17,1 11,6 14,2 69,8 7,7 297 - 0,0 0 1.024,7
21:01 17,0 11,4 14,1 69,0 8,0 299 - 0,0 0 1.024,8
21:00 17,0 11,5 14,2 69,5 8,1 296 - 0,0 0 1.024,8
 
20:59 17,1 11,5 14,2 69,4 7,8 290 - 0,0 0 1.024,7
20:58 17,1 11,4 14,1 69,0 7,8 263 - 0,0 0 1.024,7
20:57 17,1 11,6 14,2 69,9 7,9 292 - 0,0 0 1.024,6
20:56 17,1 11,5 14,2 69,2 8,4 311 - 0,0 0 1.024,6
20:55 17,1 11,6 14,2 69,7 8,5 292 - 0,0 0 1.024,7
20:54 17,1 11,5 14,2 69,5 8,5 285 - 0,0 0 1.024,6
20:53 17,1 11,3 14,0 68,4 8,2 295 - 0,0 0 1.024,6
20:52 17,1 11,2 14,0 68,0 8,4 295 - 0,0 0 1.024,7
20:51 17,1 11,2 14,0 68,1 8,5 288 - 0,0 0 1.024,7
20:50 17,1 11,4 14,2 69,0 8,3 294 - 0,0 0 1.024,7
20:49 17,1 11,5 14,2 69,0 8,2 302 - 0,0 0 1.024,6
20:48 17,1 11,3 14,1 68,5 8,2 299 - 0,0 0 1.024,7
20:47 17,1 11,2 14,0 68,0 8,4 285 - 0,0 0 1.024,7
20:46 17,1 11,6 14,3 69,6 8,1 292 - 0,0 0 1.024,6
20:45 17,1 11,3 14,1 68,1 7,9 292 - 0,0 0 1.024,6
20:44 17,1 11,2 14,0 68,0 8,1 269 - 0,0 0 1.024,5
20:43 17,1 11,2 14,0 68,0 8,5 299 - 0,0 0 1.024,4
20:42 17,1 11,1 14,0 67,5 8,7 286 - 0,0 0 1.024,4
20:41 17,1 11,5 14,2 69,1 8,4 311 11,6 0,0 0 1.024,4
20:40 17,2 11,5 14,2 69,2 8,2 276 - 0,0 0 1.024,5
20:39 17,2 11,5 14,2 69,2 7,9 300 - 0,0 0 1.024,4
20:38 17,2 11,7 14,3 69,7 7,6 303 - 0,0 0 1.024,4
20:37 17,2 11,5 14,2 69,0 7,3 331 - 0,0 0 1.024,5
20:36 17,2 11,5 14,2 69,0 7,3 297 - 0,0 0 1.024,4
20:35 17,2 11,5 14,2 69,0 7,9 300 - 0,0 0 1.024,4
20:34 17,2 11,5 14,2 69,0 8,1 298 - 0,0 0 1.024,4
20:33 17,2 11,3 14,1 67,9 8,3 301 - 0,0 0 1.024,4
20:32 17,2 11,1 14,0 67,0 8,7 295 - 0,0 0 1.024,3
20:31 17,2 11,2 14,0 67,5 9,4 283 - 0,0 0 1.024,2
20:30 17,2 11,5 14,2 68,6 9,7 282 - 0,0 0 1.024,2
20:29 17,2 11,2 14,0 67,5 9,3 288 - 0,0 0 1.024,2
20:28 17,2 11,1 13,9 67,0 8,9 249 - 0,0 0 1.024,2
20:27 17,2 11,1 13,9 67,2 9,0 288 - 0,0 0 1.024,2
20:26 17,1 11,3 14,1 68,0 9,7 293 - 0,0 0 1.024,2
20:25 17,1 11,5 14,2 69,3 10,0 295 - 0,0 0 1.024,2
20:24 17,1 11,7 14,3 70,0 10,0 293 - 0,0 0 1.024,2
20:23 17,2 11,9 14,5 70,8 9,4 271 - 0,0 0 1.024,3
20:22 17,2 12,0 14,5 71,1 8,7 258 - 0,0 0 1.024,2
20:21 17,2 12,1 14,6 72,0 8,4 292 - 0,0 0 1.024,2
20:20 17,2 12,2 14,7 72,4 8,9 296 - 0,0 0 1.024,2
20:19 17,2 12,3 14,7 72,4 8,4 290 - 0,0 0 1.024,2
20:18 17,2 12,2 14,7 72,0 7,7 292 - 0,0 1 1.024,2
20:17 17,2 12,2 14,7 72,0 7,7 317 - 0,0 5 1.024,2
20:16 17,2 12,2 14,7 72,0 8,2 304 - 0,0 5 1.024,1
20:15 17,2 12,3 14,7 72,4 8,4 301 - 0,0 5 1.024,1
20:14 17,2 12,3 14,7 72,5 8,5 293 - 0,0 7 1.024,1
20:13 17,2 12,3 14,8 72,5 8,7 287 - 0,0 7 1.024,0
20:12 17,2 12,4 14,8 73,0 8,8 292 - 0,0 7 1.024,1
20:11 17,3 12,5 14,9 73,0 8,9 291 - 0,0 7 1.024,1
20:10 17,3 12,2 14,7 72,1 8,5 286 - 0,0 8 1.024,1
20:09 17,3 12,3 14,8 72,3 8,1 313 - 0,0 9 1.024,2
20:08 17,3 12,4 14,8 72,6 7,9 294 - 0,0 10 1.024,1
20:07 17,3 12,4 14,8 72,6 8,2 285 - 0,0 11 1.024,1
20:06 17,2 12,3 14,7 72,4 8,2 298 - 0,0 11 1.024,1
20:05 17,2 12,2 14,7 72,0 8,4 303 - 0,0 12 1.024,1
20:04 17,2 12,2 14,7 72,0 8,4 303 - 0,0 13 1.024,0
20:03 17,2 12,3 14,7 72,3 8,5 286 - 0,0 15 1.024,0
20:02 17,2 12,4 14,8 73,0 8,3 296 - 0,0 16 1.024,0
20:01 17,3 12,5 14,9 73,0 8,4 307 - 0,0 18 1.023,9
20:00 17,3 12,5 14,9 73,0 8,7 300 - 0,0 19 1.023,8
 
19:59 17,3 12,7 15,0 73,8 8,7 299 - 0,0 20 1.023,8
19:58 17,4 12,9 15,2 75,0 7,9 290 - 0,0 23 1.023,9
19:57 17,4 12,9 15,2 75,0 6,8 304 - 0,0 22 1.024,1
19:56 17,3 12,8 15,1 74,6 6,4 297 - 0,0 21 1.024,2
19:55 17,3 12,8 15,1 74,6 6,5 305 - 0,0 21 1.024,2
19:54 17,3 12,8 15,1 74,3 6,5 292 - 0,0 21 1.024,2
19:53 17,3 12,7 15,1 74,0 6,5 302 - 0,0 24 1.024,2
19:52 17,3 12,7 15,0 74,0 6,6 305 - 0,0 26 1.024,2
19:51 17,3 12,7 15,0 74,0 6,8 304 - 0,0 27 1.024,1
19:50 17,3 12,7 15,0 74,0 6,9 284 - 0,0 28 1.024,1
19:49 17,3 12,7 15,1 74,0 7,0 305 - 0,0 28 1.024,1
19:48 17,4 12,7 15,1 74,0 7,1 295 - 0,0 28 1.024,1
19:47 17,4 12,7 15,1 74,0 7,1 305 - 0,0 29 1.024,1
19:46 17,4 12,7 15,1 73,8 7,0 296 - 0,0 32 1.024,0
19:45 17,3 12,6 15,0 73,3 7,0 298 - 0,0 37 1.024,1
19:44 17,4 12,8 15,1 74,0 7,2 301 - 0,0 43 1.024,1
19:43 17,4 12,8 15,1 74,0 7,4 301 - 0,0 49 1.024,1
19:42 17,4 12,8 15,1 74,0 7,3 309 - 0,0 55 1.024,1
19:41 17,4 12,8 15,1 74,0 7,5 301 - 0,0 57 1.024,1
19:40 17,4 12,7 15,1 74,0 7,7 309 - 0,0 58 1.024,0
19:39 17,4 12,8 15,1 74,0 7,8 306 - 0,0 58 1.024,1
19:38 17,3 12,7 15,1 74,0 7,8 298 - 0,0 60 1.024,1
19:37 17,3 12,7 15,1 74,0 8,0 290 - 0,0 58 1.024,1
19:36 17,4 12,9 15,2 74,8 7,9 284 - 0,0 58 1.024,1
19:35 17,3 12,7 15,1 74,1 7,6 306 - 0,0 55 1.024,1
19:34 17,3 12,9 15,2 74,8 7,6 301 - 0,0 53 1.024,1
19:33 17,3 12,8 15,1 74,4 7,9 303 - 0,0 53 1.024,1
19:32 17,3 12,8 15,1 74,5 8,3 287 - 0,0 53 1.024,1
19:31 17,3 13,0 15,2 75,3 8,2 290 - 0,0 48 1.024,1
19:30 17,3 12,9 15,2 75,1 7,8 282 - 0,0 38 1.024,0
19:29 17,3 12,9 15,2 75,0 7,6 292 - 0,0 32 1.024,0
19:28 17,3 12,8 15,1 74,8 7,9 285 - 0,0 31 1.024,0
19:27 17,3 12,8 15,1 74,4 8,3 294 - 0,0 30 1.024,0
19:26 17,3 12,9 15,2 75,0 8,7 303 - 0,0 32 1.024,0
19:25 17,3 13,1 15,3 75,7 8,8 295 - 0,0 33 1.024,0
19:24 17,3 12,9 15,2 75,2 8,5 292 - 0,0 33 1.024,0
19:23 17,3 12,9 15,2 75,0 8,5 288 - 0,0 35 1.024,0
19:22 17,3 12,9 15,2 75,0 8,6 294 - 0,0 38 1.023,9
19:21 17,2 12,8 15,1 74,6 8,6 288 - 0,0 43 1.023,9
19:20 17,2 12,6 15,0 74,0 8,9 269 - 0,0 46 1.023,9
19:19 17,2 12,8 15,1 74,7 9,5 288 - 0,0 47 1.023,9
19:18 17,2 13,0 15,2 75,9 9,3 291 - 0,0 47 1.023,9
19:17 17,2 12,8 15,1 75,1 8,5 276 - 0,0 46 1.024,0
19:16 17,2 12,8 15,0 75,0 8,1 300 - 0,0 42 1.023,9
19:15 17,2 12,8 15,1 75,5 8,5 299 - 0,0 39 1.023,9
19:14 17,2 12,9 15,2 76,0 8,5 290 - 0,0 39 1.024,0
19:13 17,1 12,9 15,1 76,0 8,0 302 - 0,0 39 1.024,0
19:12 17,1 12,8 15,1 76,0 7,7 284 - 0,0 36 1.024,0
19:11 17,1 12,7 15,0 75,2 8,0 281 - 0,0 33 1.024,0
19:10 17,1 12,9 15,1 76,0 8,1 298 - 0,0 31 1.024,0
19:09 17,1 12,8 15,1 75,6 8,0 279 - 0,0 28 1.024,0
19:08 17,1 12,7 14,9 75,0 7,8 290 - 0,0 26 1.024,0
19:07 17,0 12,6 14,9 75,0 8,0 290 - 0,0 25 1.023,9
19:06 17,0 12,4 14,8 74,2 8,3 297 - 0,0 22 1.023,9
19:05 17,1 12,6 14,9 74,8 8,4 288 - 0,0 21 1.023,9
19:04 17,1 12,5 14,8 74,3 8,3 290 - 0,0 21 1.023,9
19:03 17,1 12,7 15,0 75,0 8,1 287 - 0,0 21 1.023,9
19:02 17,1 12,7 15,0 75,0 8,1 295 - 0,0 21 1.023,9
19:01 17,1 12,7 15,0 75,0 8,1 295 - 0,0 19 1.023,9
19:00 17,1 12,7 15,0 75,0 8,1 311 - 0,0 17 1.023,9
 
18:59 17,2 12,8 15,0 75,0 8,3 285 - 0,0 16 1.023,8
18:58 17,2 12,8 15,1 75,0 8,7 302 - 0,0 16 1.023,8
18:57 17,2 12,7 15,0 74,5 9,2 279 - 0,0 16 1.023,8
18:56 17,2 12,6 14,9 74,0 9,6 286 - 0,0 16 1.023,7
18:55 17,2 12,6 15,0 74,0 9,7 296 - 0,0 16 1.023,8
18:54 17,3 12,7 15,0 74,0 9,6 302 - 0,0 16 1.023,7
18:53 17,3 12,7 15,0 74,0 9,2 283 - 0,0 15 1.023,7
18:52 17,3 12,7 15,1 74,0 8,8 255 - 0,0 14 1.023,8
18:51 17,3 12,7 15,1 74,0 8,1 292 - 0,0 12 1.023,7
18:50 17,3 12,7 15,1 74,0 8,8 322 - 0,0 14 1.023,7
18:49 17,3 12,6 15,0 73,2 8,9 272 - 0,0 17 1.023,7
18:48 17,4 12,6 15,0 73,1 9,3 286 - 0,0 19 1.023,6
18:47 17,4 12,8 15,2 74,0 8,9 274 - 0,0 18 1.023,6
18:46 17,4 12,7 15,1 73,6 9,1 302 - 0,0 17 1.023,7
18:45 17,4 12,6 15,0 73,0 9,2 299 - 0,0 14 1.023,7
18:44 17,5 12,9 15,3 74,3 9,1 285 - 0,0 14 1.023,7
18:43 17,5 12,9 15,3 74,2 8,6 285 - 0,0 15 1.023,7
18:41 17,5 12,8 15,2 73,8 8,0 296 - 0,0 20 1.023,7
18:40 17,4 12,6 15,0 73,0 8,3 336 - 0,0 21 1.023,6
18:39 17,5 12,6 15,1 73,0 8,6 334 - 0,0 21 1.023,6
18:38 17,5 12,5 15,0 72,3 8,8 291 12,1 0,0 22 1.023,7
18:37 17,5 12,5 14,9 72,0 9,3 286 - 0,0 27 1.023,6
18:36 17,5 12,5 15,0 72,0 9,0 286 - 0,0 31 1.023,6
18:35 17,5 12,6 15,0 72,3 8,9 286 - 0,0 32 1.023,6
18:34 17,6 12,7 15,1 73,0 8,5 290 - 0,0 31 1.023,6
18:33 17,5 12,6 15,0 72,5 8,3 249 - 0,0 26 1.023,6
18:32 17,5 12,3 14,8 71,3 8,3 278 - 0,0 18 1.023,7
18:31 17,5 12,3 14,8 71,0 9,0 292 - 0,0 18 1.023,7
18:30 17,6 12,6 15,0 72,0 9,7 305 - 0,0 18 1.023,6
18:29 17,6 12,6 15,1 72,0 9,4 293 - 0,0 17 1.023,6
18:28 17,6 12,5 15,0 71,5 8,8 276 - 0,0 16 1.023,6
18:27 17,6 12,4 14,9 71,0 8,7 313 - 0,0 19 1.023,5
18:26 17,6 12,2 14,8 70,3 8,6 282 - 0,0 20 1.023,5
18:25 17,6 12,1 14,7 70,0 8,9 260 - 0,0 25 1.023,5
18:24 17,6 12,1 14,8 70,0 9,2 282 - 0,0 31 1.023,5
18:23 17,6 12,1 14,8 70,0 9,7 280 - 0,0 36 1.023,5
18:22 17,6 12,1 14,7 69,6 9,4 269 - 0,0 39 1.023,4
18:21 17,6 12,1 14,7 69,8 9,4 288 - 0,0 39 1.023,4
18:20 17,6 12,0 14,7 69,3 10,0 286 - 0,0 41 1.023,4
18:19 17,7 11,8 14,6 68,2 10,7 274 - 0,0 44 1.023,4
18:18 17,7 12,0 14,7 69,2 10,8 274 - 0,0 47 1.023,4
18:17 17,7 12,2 14,8 69,7 10,3 275 - 0,0 48 1.023,3
18:16 17,7 12,0 14,7 69,0 9,9 263 - 0,0 55 1.023,3
18:15 17,7 12,2 14,8 69,7 10,0 280 - 0,0 60 1.023,3
18:14 17,8 12,3 14,9 70,0 10,2 282 - 0,0 64 1.023,3
18:13 17,7 12,1 14,8 69,1 9,9 297 - 0,0 68 1.023,2
18:12 17,7 11,8 14,6 68,0 9,6 290 - 0,0 71 1.023,2
18:11 17,7 11,8 14,6 68,0 9,7 295 - 0,0 76 1.023,2
18:10 17,7 11,8 14,6 68,0 10,0 289 - 0,0 82 1.023,2
18:09 17,7 11,8 14,6 68,0 10,3 287 - 0,0 114 1.023,2
18:08 17,7 12,1 14,8 69,0 10,0 283 - 0,0 264 1.023,2
18:07 17,7 11,8 14,6 68,0 9,6 272 - 0,0 194 1.023,2
18:06 17,7 11,6 14,4 67,0 9,7 269 - 0,0 109 1.023,3
18:05 17,7 11,6 14,4 67,0 10,3 271 - 0,0 101 1.023,2
18:04 17,7 11,6 14,4 67,0 10,7 245 - 0,0 89 1.023,2
18:03 17,7 11,7 14,5 67,7 10,7 264 - 0,0 83 1.023,2
18:02 17,7 11,8 14,5 68,0 10,0 255 - 0,0 83 1.023,2
18:01 17,7 11,8 14,5 67,9 10,0 296 - 0,0 81 1.023,1
18:00 17,7 11,6 14,4 67,3 10,6 287 - 0,0 77 1.023,1
 
17:59 17,7 11,9 14,6 68,4 10,3 281 - 0,0 75 1.023,0
17:58 17,7 11,8 14,5 67,9 10,2 244 - 0,0 74 1.023,0
17:57 17,7 11,6 14,4 67,0 10,2 287 - 0,0 74 1.022,9
17:56 17,7 11,8 14,6 67,9 10,6 282 - 0,0 73 1.023,0
17:55 17,8 11,7 14,5 67,4 10,3 290 - 0,0 73 1.023,0
17:54 17,8 11,8 14,6 67,7 10,1 278 - 0,0 110 1.023,0
17:53 17,8 11,8 14,6 67,5 10,2 294 - 0,0 228 1.023,0
17:52 17,8 11,8 14,6 67,5 10,4 288 - 0,0 261 1.022,9
17:51 17,8 12,0 14,7 68,4 10,4 292 - 0,0 273 1.022,9
17:50 17,8 11,9 14,7 68,0 10,4 290 - 0,0 275 1.022,9
17:49 17,8 11,8 14,6 67,5 10,9 290 - 0,0 291 1.022,9
17:48 17,8 12,3 15,0 70,0 11,1 279 - 0,0 149 1.022,9
17:47 17,8 12,2 14,9 69,6 10,9 309 - 0,0 69 1.022,9
17:46 17,8 12,1 14,8 69,0 10,2 294 13,9 0,0 69 1.022,9
17:45 17,8 12,1 14,8 69,0 10,5 253 - 0,0 66 1.022,9
17:44 17,8 12,3 15,0 70,0 10,3 278 - 0,0 138 1.022,9
17:43 17,9 12,6 15,2 71,2 9,9 285 - 0,0 290 1.022,9
17:42 17,9 12,8 15,3 71,7 9,8 300 - 0,0 285 1.022,8
17:41 17,8 12,7 15,2 71,5 9,8 302 - 0,0 300 1.022,9
17:40 17,8 12,7 15,2 71,4 9,5 292 - 0,0 305 1.023,0
17:39 17,8 12,6 15,1 71,0 9,2 293 - 0,0 320 1.023,0
17:38 17,8 12,9 15,4 72,7 9,2 283 - 0,0 363 1.023,0
17:37 17,8 12,5 15,1 71,0 9,5 276 - 0,0 401 1.023,0
17:36 17,7 12,5 15,0 71,0 9,4 275 - 0,0 418 1.022,9
17:35 17,7 12,6 15,1 71,5 9,7 305 - 0,0 415 1.023,0
17:34 17,7 12,5 15,0 71,4 10,0 295 - 0,0 175 1.022,9
17:33 17,7 12,4 15,0 71,0 10,3 284 - 0,0 152 1.022,9
17:32 17,7 12,4 15,0 71,1 10,6 275 - 0,0 117 1.022,9
17:31 17,7 12,6 15,1 71,8 10,2 290 - 0,0 107 1.022,9
17:30 17,7 12,5 15,0 71,0 9,4 290 - 0,0 100 1.022,9
17:29 17,7 12,5 15,0 71,0 8,8 305 - 0,0 92 1.022,8
17:28 17,7 12,5 15,0 71,0 9,0 268 - 0,0 87 1.022,8
17:27 17,8 12,7 15,2 71,8 9,3 294 - 0,0 90 1.022,8
17:26 17,8 13,0 15,4 73,0 9,5 300 - 0,0 95 1.022,7
17:25 17,8 12,9 15,4 72,5 9,6 309 - 0,0 100 1.022,7
17:24 17,8 12,5 15,1 70,6 10,1 294 - 0,0 104 1.022,6
17:23 17,8 12,4 15,0 70,0 10,4 291 - 0,0 107 1.022,6
17:22 17,9 12,4 15,0 70,0 10,3 286 - 0,0 116 1.022,7
17:21 17,9 12,7 15,2 71,0 10,0 282 - 0,0 116 1.022,6
17:20 18,0 12,5 15,1 70,0 10,6 296 - 0,0 119 1.022,5
17:19 18,0 12,4 15,0 69,3 11,4 293 - 0,0 290 1.022,5
17:18 18,0 12,4 15,1 69,6 11,9 288 - 0,0 401 1.022,6
17:17 18,0 12,4 15,0 69,6 12,1 288 - 0,0 386 1.022,5
17:16 18,0 12,3 15,0 69,3 12,0 274 - 0,0 375 1.022,4
17:15 17,9 12,3 14,9 69,1 11,4 283 - 0,0 370 1.022,5
17:14 17,9 12,3 15,0 69,6 10,8 299 - 0,0 371 1.022,6
17:13 17,9 12,3 14,9 69,4 10,7 290 - 0,0 196 1.022,6
17:12 17,9 12,4 15,0 70,0 11,1 286 - 0,0 120 1.022,5
17:11 17,9 12,4 15,0 70,0 11,5 286 - 0,0 155 1.022,5
17:10 17,9 12,2 14,9 69,3 11,8 292 - 0,0 146 1.022,5
17:09 17,9 12,6 15,1 70,7 11,8 276 - 0,0 136 1.022,5
17:08 17,9 12,6 15,2 70,7 11,4 280 - 0,0 123 1.022,5
17:07 17,9 12,5 15,1 70,3 10,9 295 - 0,0 132 1.022,5
17:06 17,9 12,5 15,1 70,1 11,3 257 - 0,0 331 1.022,4
17:05 17,9 12,3 15,0 69,6 12,1 264 - 0,0 362 1.022,4
17:04 17,9 12,4 15,0 70,0 12,1 272 - 0,0 200 1.022,4
17:03 17,9 12,2 14,9 69,1 11,7 277 - 0,0 269 1.022,4
17:02 17,9 12,0 14,8 68,2 11,6 296 - 0,0 396 1.022,5
17:01 17,9 12,2 14,9 69,0 11,7 274 - 0,0 396 1.022,4
17:00 17,8 12,2 14,8 69,0 11,6 284 - 0,0 231 1.022,4
 
16:59 17,8 12,2 14,8 69,0 11,7 284 - 0,0 187 1.022,3
16:58 17,9 12,8 15,3 72,0 11,4 283 - 0,0 126 1.022,4
16:57 17,9 13,1 15,5 73,0 9,9 266 13,4 0,0 119 1.022,5
16:56 17,9 12,8 15,3 72,0 8,7 319 - 0,0 104 1.022,5
16:55 17,8 12,6 15,1 71,0 8,8 286 - 0,0 201 1.022,5
16:54 17,8 12,4 15,0 70,0 9,3 291 - 0,0 243 1.022,4
16:53 17,9 12,5 15,1 70,7 10,1 286 - 0,0 159 1.022,5
16:52 17,9 12,8 15,3 71,8 10,8 285 - 0,0 172 1.022,5
16:51 18,0 12,9 15,4 72,0 11,0 285 - 0,0 314 1.022,4
16:50 18,0 13,0 15,5 72,2 10,5 269 - 0,0 513 1.022,4
16:49 18,0 13,1 15,6 72,7 9,3 268 - 0,0 513 1.022,4
16:48 18,0 12,9 15,4 72,0 8,7 298 - 0,0 513 1.022,4
16:47 17,9 12,7 15,2 71,2 9,3 293 - 0,0 276 1.022,4
16:46 17,9 12,6 15,2 71,0 9,8 292 - 0,0 264 1.022,4
16:45 17,9 12,9 15,4 72,1 9,8 274 - 0,0 274 1.022,4
16:44 18,0 13,1 15,6 73,0 9,1 298 - 0,0 258 1.022,4
16:43 18,0 13,1 15,5 73,0 8,3 253 - 0,0 253 1.022,4
16:42 17,9 13,0 15,4 72,5 8,1 297 - 0,0 214 1.022,4
16:41 17,9 12,7 15,2 71,3 9,0 304 - 0,0 200 1.022,4
16:40 17,9 12,8 15,3 71,8 9,8 294 - 0,0 200 1.022,3
16:39 17,9 12,9 15,3 71,9 10,4 305 - 0,0 178 1.022,3
16:38 17,9 12,7 15,2 71,0 11,1 273 - 0,0 143 1.022,3
16:37 18,0 12,8 15,3 71,4 11,8 281 - 0,0 139 1.022,4
16:36 18,0 13,1 15,5 72,6 11,4 282 - 0,0 500 1.022,3
16:35 17,9 12,8 15,3 71,6 10,5 278 - 0,0 467 1.022,3
16:34 17,9 12,8 15,3 72,0 9,8 289 - 0,0 176 1.022,3
16:33 17,9 12,7 15,2 71,1 9,6 283 - 0,0 166 1.022,4
16:32 17,9 12,7 15,2 71,0 9,6 296 - 0,0 155 1.022,3
16:31 17,9 12,7 15,2 71,0 9,9 296 - 0,0 176 1.022,3
16:30 17,9 12,8 15,3 71,6 9,9 291 - 0,0 178 1.022,3
16:29 18,0 12,6 15,2 70,6 9,8 292 - 0,0 156 1.022,2
16:28 17,9 12,5 15,1 70,0 10,1 287 - 0,0 148 1.022,2
16:27 18,0 12,7 15,3 71,0 10,4 292 - 0,0 181 1.022,2
16:26 18,0 12,8 15,3 71,0 10,4 267 - 0,0 170 1.022,2
16:25 18,1 12,8 15,4 71,0 9,9 291 - 0,0 139 1.022,2
16:24 18,1 12,7 15,3 70,4 9,7 284 - 0,0 137 1.022,2
16:23 18,1 12,5 15,2 69,3 10,1 292 - 0,0 140 1.022,2
16:22 18,2 12,7 15,3 70,0 10,5 270 - 0,0 145 1.022,2
16:21 18,3 13,3 15,7 72,0 9,9 282 - 0,0 382 1.022,1
16:20 18,3 13,2 15,7 71,7 9,3 311 - 0,0 613 1.022,1
16:19 18,2 12,7 15,4 70,1 9,1 290 - 0,0 613 1.022,1
16:18 18,2 12,5 15,2 69,0 9,5 284 - 0,0 295 1.022,1
16:17 18,2 12,9 15,4 70,5 10,0 276 - 0,0 278 1.022,0
16:16 18,2 12,6 15,3 69,3 10,5 257 - 0,0 278 1.022,0
16:15 18,3 12,8 15,4 70,2 10,8 285 - 0,0 314 1.022,0
16:14 18,3 12,9 15,5 70,7 10,5 285 - 0,0 508 1.022,1
16:13 18,3 12,8 15,4 70,0 9,9 265 - 0,0 578 1.022,1
16:12 18,3 12,8 15,4 70,0 10,0 291 - 0,0 620 1.022,0
16:11 18,3 12,9 15,5 70,0 10,5 282 - 0,0 567 1.022,0
16:10 18,3 12,8 15,4 69,9 10,5 283 - 0,0 504 1.022,0
16:09 18,3 12,4 15,1 68,2 10,7 292 - 0,0 438 1.022,0
16:08 18,3 12,5 15,2 68,7 11,0 274 - 0,0 229 1.021,9
16:07 18,3 12,2 15,0 67,5 11,7 291 - 0,0 139 1.021,9
16:06 18,3 12,6 15,3 69,0 11,9 288 - 0,0 158 1.021,8
16:05 18,4 12,5 15,3 68,4 11,9 289 - 0,0 524 1.021,8
16:04 18,3 12,4 15,2 67,9 11,9 267 - 0,0 548 1.021,8
16:03 18,4 12,3 15,1 67,5 12,6 257 - 0,0 578 1.021,8
16:02 18,4 12,8 15,5 69,4 12,6 273 - 0,0 578 1.021,8
16:01 18,4 12,8 15,5 69,5 11,9 265 - 0,0 568 1.021,9
16:00 18,4 12,5 15,3 68,3 11,2 278 - 0,0 534 1.021,9
 
15:59 18,4 12,8 15,5 69,6 10,5 270 - 0,0 509 1.021,9
15:58 18,4 12,9 15,5 69,9 10,3 293 - 0,0 497 1.021,8
15:57 18,3 12,6 15,3 68,8 10,5 297 - 0,0 492 1.021,8
15:56 18,3 12,4 15,2 68,0 11,2 272 - 0,0 490 1.021,7
15:55 18,3 12,3 15,1 67,5 11,7 269 - 0,0 494 1.021,7
15:54 18,3 12,5 15,2 68,4 11,5 293 - 0,0 494 1.021,7
15:53 18,3 12,4 15,2 68,2 11,3 274 - 0,0 492 1.021,7
15:52 18,3 12,6 15,3 69,0 11,3 278 - 0,0 492 1.021,7
15:51 18,3 12,6 15,3 68,7 11,3 265 - 0,0 495 1.021,7
15:50 18,3 12,5 15,3 68,6 11,3 282 - 0,0 495 1.021,7
15:49 18,4 12,8 15,4 69,6 11,0 271 - 0,0 496 1.021,7
15:48 18,3 12,9 15,5 70,0 10,9 286 - 0,0 496 1.021,7
15:47 18,3 12,8 15,4 70,0 10,9 273 - 0,0 497 1.021,7
15:46 18,3 12,6 15,3 68,9 11,8 245 - 0,0 500 1.021,7
15:45 18,3 12,5 15,2 68,6 12,7 269 - 0,0 499 1.021,7
15:44 18,3 12,9 15,5 70,5 12,4 265 15,6 0,0 499 1.021,7
15:43 18,3 12,8 15,4 69,8 12,0 304 - 0,0 491 1.021,7
15:42 18,3 13,0 15,5 70,5 11,8 287 15,2 0,0 507 1.021,7
15:41 18,4 13,1 15,6 71,0 12,0 267 - 0,0 518 1.021,7
15:40 18,4 13,2 15,7 71,2 11,7 281 - 0,0 547 1.021,7
15:39 18,4 13,4 15,8 72,3 11,5 289 - 0,0 568 1.021,6
15:38 18,4 13,3 15,8 72,1 11,8 293 - 0,0 591 1.021,6
15:37 18,3 12,9 15,5 70,4 12,1 294 15,2 0,0 556 1.021,6
15:36 18,3 12,8 15,4 70,0 13,1 261 - 0,0 528 1.021,5
15:35 18,3 13,0 15,6 70,9 13,5 271 - 0,0 523 1.021,5
15:34 18,3 13,0 15,6 71,0 13,0 279 - 0,0 524 1.021,4
15:33 18,2 12,9 15,4 70,5 12,8 284 - 0,0 531 1.021,5
15:32 18,2 12,9 15,4 70,5 13,1 276 - 0,0 534 1.021,5
15:31 18,2 13,1 15,6 71,7 13,3 269 - 0,0 554 1.021,5
15:30 18,3 13,0 15,6 71,2 12,9 275 - 0,0 555 1.021,5
15:29 18,3 13,2 15,7 72,0 12,1 265 - 0,0 555 1.021,5
15:28 18,3 13,2 15,7 71,8 9,8 261 - 0,0 555 1.021,5
15:27 18,2 13,0 15,5 71,0 8,3 190 13,4 0,0 543 1.021,5
15:26 18,2 12,9 15,5 71,0 9,0 294 14,3 0,0 535 1.021,5
15:25 18,2 12,9 15,5 71,0 12,3 271 - 0,0 528 1.021,5
15:24 18,2 13,1 15,6 71,8 12,1 272 - 0,0 532 1.021,5
15:23 18,2 13,1 15,6 71,9 11,6 263 - 0,0 530 1.021,6
15:22 18,2 13,0 15,5 71,3 11,4 290 - 0,0 528 1.021,4
15:21 18,2 13,3 15,7 72,4 11,8 268 - 0,0 529 1.021,5
15:20 18,3 13,4 15,8 73,0 11,7 273 - 0,0 529 1.021,5
15:19 18,3 13,4 15,8 73,0 11,4 281 - 0,0 533 1.021,4
15:18 18,2 13,4 15,8 73,0 11,6 286 - 0,0 537 1.021,4
15:17 18,3 13,4 15,8 72,9 11,6 278 - 0,0 541 1.021,5
15:16 18,2 13,2 15,6 72,0 11,5 267 - 0,0 541 1.021,4
15:15 18,2 13,0 15,6 71,6 11,8 274 - 0,0 544 1.021,4
15:14 18,2 13,0 15,6 71,6 12,6 272 - 0,0 555 1.021,4
15:13 18,2 13,0 15,5 71,3 12,8 257 - 0,0 577 1.021,4
15:12 18,2 13,1 15,6 71,9 12,0 279 - 0,0 601 1.021,3
15:11 18,2 13,1 15,6 71,7 12,0 290 - 0,0 601 1.021,4
15:10 18,2 12,8 15,4 70,6 12,5 278 - 0,0 601 1.021,4
15:09 18,2 13,1 15,6 72,0 13,1 278 - 0,0 601 1.021,4
15:08 18,2 13,2 15,7 72,6 12,8 274 - 0,0 273 1.021,4
15:07 18,2 13,2 15,6 72,3 12,5 271 - 0,0 309 1.021,4
15:06 18,2 13,3 15,7 72,9 12,8 277 - 0,0 603 1.021,4
15:05 18,2 13,8 16,1 75,6 12,5 278 - 0,0 587 1.021,3
15:04 18,1 13,5 15,8 74,0 11,5 278 - 0,0 566 1.021,4
15:03 18,0 13,3 15,6 73,4 11,3 273 - 0,0 564 1.021,4
15:02 17,9 13,1 15,5 73,0 11,9 284 - 0,0 569 1.021,4
15:01 17,8 13,0 15,4 73,0 12,0 260 - 0,0 485 1.021,4
15:00 17,8 13,0 15,4 73,0 11,7 270 - 0,0 123 1.021,4
 
14:59 17,8 13,0 15,4 73,1 11,6 267 - 0,0 169 1.021,4
14:58 17,8 13,1 15,5 74,0 11,7 286 - 0,0 156 1.021,4
14:57 17,8 13,1 15,5 74,0 11,6 284 - 0,0 124 1.021,5
14:56 17,7 13,0 15,4 73,4 11,1 274 - 0,0 129 1.021,4
14:55 17,8 12,9 15,3 73,0 11,1 257 - 0,0 142 1.021,4
14:54 17,8 12,9 15,4 73,0 11,3 284 - 0,0 151 1.021,4
14:53 17,8 13,0 15,4 73,0 12,4 288 - 0,0 151 1.021,3
14:52 17,8 13,1 15,5 73,4 12,5 283 - 0,0 151 1.021,3
14:51 17,9 13,1 15,5 73,5 12,2 273 - 0,0 151 1.021,3
14:50 17,9 13,1 15,5 73,0 12,1 274 - 0,0 148 1.021,2
14:49 18,0 13,0 15,4 72,2 12,4 285 - 0,0 157 1.021,2
14:48 18,0 12,8 15,3 71,1 12,6 272 - 0,0 193 1.021,2
14:47 18,0 12,8 15,3 71,0 12,5 286 - 0,0 153 1.021,2
14:46 18,1 12,9 15,5 71,4 12,3 281 - 0,0 518 1.021,3
14:45 18,2 13,3 15,7 72,5 12,3 282 - 0,0 684 1.021,2
14:44 18,2 13,5 15,9 73,7 12,2 276 - 0,0 691 1.021,3
14:43 18,2 13,6 15,9 74,0 11,7 269 - 0,0 588 1.021,2
14:42 18,2 13,3 15,7 73,0 11,6 289 - 0,0 276 1.021,2
14:41 18,2 13,2 15,6 72,3 12,0 269 - 0,0 276 1.021,3
14:40 18,2 13,3 15,7 73,0 12,3 294 - 0,0 276 1.021,2
14:39 18,1 13,1 15,5 71,9 12,7 282 - 0,0 276 1.021,2
14:38 18,1 12,9 15,4 71,7 13,0 290 - 0,0 276 1.021,2
14:37 18,1 13,0 15,5 72,0 13,2 261 - 0,0 266 1.021,3
14:36 18,1 12,8 15,4 71,2 13,5 267 - 0,0 245 1.021,3
14:35 18,1 13,0 15,5 72,0 13,5 269 - 0,0 275 1.021,2
14:34 18,1 13,0 15,5 72,0 13,4 263 - 0,0 298 1.021,1
14:33 18,0 13,0 15,4 72,0 13,1 282 - 0,0 281 1.021,2
14:32 18,1 13,3 15,7 73,4 12,9 295 - 0,0 268 1.021,2
14:31 18,0 13,0 15,5 72,3 12,4 274 - 0,0 227 1.021,1
14:30 18,0 13,0 15,5 72,4 12,6 294 - 0,0 219 1.021,1
14:29 18,0 13,3 15,7 73,4 13,0 274 - 0,0 202 1.021,1
14:28 18,0 13,1 15,5 72,6 13,3 261 - 0,0 193 1.021,1
14:27 18,1 13,4 15,8 73,8 13,1 244 - 0,0 200 1.021,0
14:26 18,2 13,5 15,9 74,0 12,4 257 - 0,0 229 1.021,0
14:25 18,2 13,4 15,8 73,2 12,1 273 - 0,0 427 1.021,0
14:24 18,2 13,3 15,8 72,9 12,3 268 - 0,0 795 1.021,0
14:23 18,2 13,2 15,7 72,3 12,6 259 - 0,0 795 1.021,0
14:22 18,2 13,3 15,7 73,0 12,9 267 - 0,0 766 1.021,0
14:21 18,1 13,4 15,8 73,8 12,8 269 - 0,0 715 1.020,9
14:20 18,1 13,5 15,9 74,0 12,1 253 - 0,0 520 1.021,0
14:19 18,1 13,4 15,8 74,0 11,3 272 - 0,0 424 1.021,1
14:18 18,1 13,1 15,6 72,7 11,2 259 - 0,0 244 1.021,0
14:17 18,1 13,2 15,6 72,8 11,2 271 - 0,0 220 1.021,0
14:16 18,0 13,1 15,5 72,4 11,3 277 - 0,0 213 1.021,0
14:15 18,0 12,9 15,4 72,0 11,4 280 - 0,0 213 1.021,0
14:14 18,0 12,9 15,4 72,0 11,5 273 - 0,0 213 1.021,0
14:13 18,0 12,7 15,3 71,1 11,7 260 - 0,0 398 1.020,9
14:12 18,0 12,8 15,3 71,2 12,0 263 - 0,0 675 1.020,8
14:11 18,0 13,0 15,4 72,0 12,3 253 - 0,0 654 1.020,9
14:10 18,0 13,0 15,5 72,0 11,7 258 - 0,0 637 1.020,9
14:09 18,0 12,9 15,4 72,0 11,3 275 - 0,0 637 1.020,8
14:08 17,9 12,6 15,2 71,1 11,7 280 - 0,0 647 1.020,8
14:07 17,9 12,6 15,2 71,1 12,3 272 - 0,0 631 1.021,0
14:06 17,9 12,8 15,3 72,0 12,9 249 - 0,0 631 1.020,9
14:05 17,9 12,8 15,3 72,0 12,6 268 - 0,0 626 1.020,7
14:04 17,9 12,6 15,2 71,0 12,7 296 - 0,0 539 1.020,7
14:03 17,9 12,7 15,2 71,3 11,2 258 14,3 0,0 524 1.020,8
14:02 17,9 12,9 15,3 72,0 11,6 208 15,2 0,0 453 1.020,7
14:01 17,9 12,6 15,2 71,1 12,1 281 15,6 0,0 287 1.020,7
14:00 17,9 12,6 15,2 71,0 13,7 255 - 0,0 261 1.020,6
 
13:59 17,9 12,6 15,2 71,0 14,1 249 - 0,0 244 1.020,6
13:58 17,9 12,6 15,1 71,0 14,2 268 - 0,0 244 1.020,6
13:57 17,9 12,5 15,1 70,3 14,3 272 - 0,0 193 1.020,7
13:56 17,9 12,8 15,3 71,6 13,8 269 - 0,0 222 1.020,8
13:55 17,9 12,6 15,2 71,0 13,4 261 - 0,0 227 1.020,8
13:54 17,9 12,4 15,0 69,8 13,7 239 - 0,0 223 1.020,7
13:53 17,9 12,2 14,9 69,0 14,0 247 - 0,0 221 1.020,7
13:52 17,9 12,2 14,9 69,0 14,1 249 - 0,0 221 1.020,7
13:51 17,9 12,2 14,9 69,0 13,6 256 - 0,0 220 1.020,7
13:50 17,9 12,4 15,0 69,9 13,5 223 - 0,0 248 1.020,7
13:49 18,0 12,5 15,1 70,0 13,4 253 - 0,0 252 1.020,7
13:48 18,0 12,6 15,2 70,3 13,9 263 - 0,0 237 1.020,6
13:47 18,1 12,8 15,3 71,0 13,4 273 - 0,0 242 1.020,7
13:46 18,1 12,6 15,2 69,9 12,7 272 - 0,0 253 1.020,8
13:45 18,1 12,7 15,3 70,4 12,0 278 - 0,0 365 1.020,8
13:44 18,1 12,6 15,2 70,2 11,7 276 - 0,0 777 1.020,7
13:43 18,0 12,5 15,1 70,0 11,8 265 - 0,0 730 1.020,7
13:42 17,9 12,5 15,1 70,0 12,0 269 - 0,0 389 1.020,7
13:41 17,9 12,4 15,0 70,0 12,0 282 - 0,0 223 1.020,7
13:40 17,9 12,7 15,2 71,3 11,6 286 - 0,0 223 1.020,7
13:39 17,9 12,7 15,2 71,3 10,9 271 - 0,0 219 1.020,6
13:38 17,8 12,4 15,0 70,1 11,3 264 - 0,0 205 1.020,6
13:37 17,8 12,4 15,0 70,2 12,1 269 - 0,0 203 1.020,6
13:36 17,8 12,6 15,1 71,0 12,5 274 - 0,0 248 1.020,6
13:35 17,8 12,7 15,2 71,5 12,2 287 - 0,0 272 1.020,7
13:34 17,9 13,1 15,5 73,2 11,6 282 - 0,0 284 1.020,7
13:33 17,9 13,1 15,5 73,3 10,8 285 - 0,0 392 1.020,7
13:32 17,8 12,8 15,3 72,1 10,4 280 - 0,0 392 1.020,6
13:31 17,8 12,8 15,2 72,2 10,6 286 - 0,0 442 1.020,6
13:30 17,8 12,9 15,3 73,0 10,8 267 - 0,0 327 1.020,5
13:29 17,8 12,9 15,3 73,0 10,9 286 - 0,0 260 1.020,5
13:28 17,8 12,9 15,4 73,0 10,8 287 - 0,0 250 1.020,5
13:27 17,8 13,1 15,5 73,8 10,4 297 - 0,0 339 1.020,6
13:26 17,8 13,0 15,4 73,1 9,2 288 - 0,0 564 1.020,6
13:25 17,7 12,9 15,3 73,0 8,2 244 11,2 0,0 408 1.020,5
13:24 17,7 12,8 15,3 73,0 8,3 323 - 0,0 281 1.020,5
13:23 17,7 12,8 15,3 73,0 9,4 285 - 0,0 281 1.020,4
13:22 17,7 12,8 15,3 73,0 10,0 285 - 0,0 281 1.020,4
13:21 17,7 12,8 15,3 73,0 10,4 292 - 0,0 256 1.020,5
13:20 17,7 12,8 15,3 73,0 10,9 297 - 0,0 185 1.020,4
13:19 17,7 12,9 15,3 73,3 11,8 288 - 0,0 166 1.020,2
13:18 17,8 13,1 15,5 73,6 12,4 298 - 0,0 167 1.020,2
13:17 17,8 13,1 15,5 73,6 12,4 282 - 0,0 179 1.020,3
13:16 17,9 13,1 15,5 73,3 12,2 286 - 0,0 205 1.020,2
13:15 17,9 13,2 15,6 73,8 12,2 292 - 0,0 254 1.020,1
13:14 17,9 13,2 15,6 73,8 12,4 269 - 0,0 535 1.020,1
13:13 17,8 12,8 15,3 72,3 12,9 292 - 0,0 809 1.020,0
13:12 17,8 13,1 15,5 73,4 13,3 268 - 0,0 787 1.020,1
13:11 17,8 13,2 15,6 74,0 13,3 268 - 0,0 759 1.020,1
13:10 17,8 13,0 15,4 73,3 12,9 271 - 0,0 740 1.020,1
13:09 17,8 12,9 15,4 73,0 13,1 286 - 0,0 749 1.020,1
13:08 17,8 12,9 15,4 73,0 13,7 267 - 0,0 493 1.020,1
13:07 17,8 12,9 15,4 73,0 14,2 274 - 0,0 236 1.020,1
13:06 17,8 13,2 15,5 73,9 14,5 255 - 0,0 236 1.020,0
13:05 17,8 13,3 15,6 74,5 13,9 261 - 0,0 236 1.019,9
13:04 17,8 13,1 15,5 73,3 13,4 282 - 0,0 236 1.019,9
13:03 17,8 12,8 15,3 72,2 13,1 288 - 0,0 223 1.019,9
13:02 17,8 12,5 15,1 71,1 13,2 264 - 0,0 203 1.019,9
13:01 17,8 12,5 15,0 70,7 13,4 267 - 0,0 237 1.020,0
13:00 17,7 12,4 15,0 70,5 13,4 266 - 0,0 259 1.019,9
 
12:59 17,7 12,3 14,9 70,4 13,7 267 - 0,0 260 1.019,8
12:58 17,6 12,7 15,1 72,6 13,8 261 - 0,0 260 1.019,8
12:57 17,6 13,0 15,4 74,5 13,8 292 - 0,0 260 1.019,8
12:56 17,6 13,3 15,6 76,1 13,5 274 - 0,0 247 1.019,9
12:55 17,6 13,5 15,7 77,0 13,4 257 - 0,0 236 1.020,2
12:54 17,5 13,4 15,6 76,6 12,8 260 - 0,0 236 1.020,1
12:53 17,6 13,5 15,7 76,6 12,0 255 - 0,0 236 1.020,0
12:52 17,6 13,6 15,7 77,0 11,4 242 - 0,0 236 1.020,0
12:51 17,6 13,6 15,8 77,0 10,5 274 - 0,0 236 1.020,0
12:50 17,7 13,4 15,6 75,6 10,3 213 - 0,0 277 1.020,0
12:49 17,7 13,0 15,4 74,0 11,1 254 - 0,0 311 1.019,9
12:48 17,6 13,0 15,3 74,0 12,1 265 - 0,0 311 1.019,9
12:47 17,6 12,9 15,2 73,4 12,0 236 - 0,0 218 1.020,0
12:46 17,6 12,9 15,3 73,8 12,0 274 - 0,0 228 1.019,9
12:45 17,6 12,8 15,2 73,2 12,7 252 - 0,0 332 1.019,7
12:44 17,6 12,9 15,3 73,8 13,0 276 - 0,0 291 1.019,8
12:43 17,6 12,8 15,2 73,4 13,1 273 - 0,0 219 1.019,8
12:42 17,6 13,1 15,4 74,5 12,1 278 - 0,0 202 1.019,8
12:41 17,6 13,0 15,4 74,4 12,1 233 - 0,0 210 1.019,8
12:40 17,6 12,9 15,3 74,0 12,8 265 - 0,0 219 1.019,7
12:39 17,6 13,3 15,5 75,8 13,2 261 - 0,0 253 1.019,6
12:38 17,5 13,1 15,4 75,3 13,2 283 - 0,0 268 1.019,7
12:37 17,5 13,4 15,6 76,6 12,9 268 - 0,0 236 1.019,7
12:36 17,4 13,4 15,6 77,0 12,2 261 - 0,0 165 1.019,6
12:35 17,4 13,5 15,7 77,7 12,8 271 - 0,0 225 1.019,7
12:34 17,4 13,8 15,8 78,8 12,2 285 - 0,0 229 1.019,7
12:33 17,3 13,5 15,6 78,2 11,7 294 - 0,0 229 1.019,6
12:32 17,3 13,6 15,7 78,8 13,1 246 - 0,0 221 1.019,5
12:31 17,3 13,6 15,6 78,8 12,8 271 - 0,0 226 1.019,6
12:30 17,2 13,7 15,7 79,5 12,2 256 - 0,0 229 1.019,6
12:29 17,2 13,6 15,6 79,0 12,2 275 - 0,0 229 1.019,6
12:28 17,2 13,5 15,6 79,0 13,3 267 - 0,0 229 1.019,6
12:27 17,2 13,6 15,6 79,2 13,5 261 - 0,0 223 1.019,5
12:26 17,2 13,8 15,8 80,0 12,0 255 - 0,0 196 1.019,5
12:25 17,3 13,9 15,9 80,4 11,2 271 - 0,0 183 1.019,5
12:24 17,3 14,0 16,0 81,0 12,1 245 - 0,0 182 1.019,5
12:23 17,3 13,9 15,9 80,3 12,4 246 - 0,0 162 1.019,5
12:22 17,2 13,6 15,6 79,2 12,8 259 - 0,0 173 1.019,5